Time,TemperatureF,DewpointF,PressureIn,WindDirection,WindDirectionDegrees,WindSpeedMPH,WindSpeedGustMPH,Humidity,HourlyPrecipIn,Conditions,Clouds,dailyrainin,SoftwareType,DateUTC
2013-08-16 00:00:00,62.0,59.3,30.04,NE,38,0.0,2.0,91,0.00,,---,0.00,VWS V13.01,2013-08-16 05:00:00,
2013-08-16 00:01:00,62.1,59.5,30.04,NE,39,0.0,0.0,91,0.00,,---,0.00,VWS V13.01,2013-08-16 05:01:00,
2013-08-16 00:02:00,62.2,59.5,30.04,NE,39,0.0,0.0,91,0.00,,---,0.00,VWS V13.01,2013-08-16 05:02:00,
2013-08-16 00:03:00,62.0,59.3,30.04,NE,38,0.0,0.0,91,0.00,,---,0.00,VWS V13.01,2013-08-16 05:03:00,
2013-08-16 00:04:00,62.0,59.3,30.04,NE,39,0.0,0.0,91,0.00,,---,0.00,VWS V13.01,2013-08-16 05:04:00,
2013-08-16 00:05:00,62.0,59.3,30.04,NE,38,0.0,0.0,91,0.00,,---,0.00,VWS V13.01,2013-08-16 05:05:00,
2013-08-16 00:06:00,62.0,59.0,30.04,NE,39,0.0,0.0,90,0.00,,---,0.00,VWS V13.01,2013-08-16 05:06:00,
2013-08-16 00:07:00,62.1,59.5,30.04,NE,38,0.0,0.0,91,0.00,,---,0.00,VWS V13.01,2013-08-16 05:07:00,
2013-08-16 00:08:00,62.0,59.0,30.04,NE,39,0.0,0.0,90,0.00,,---,0.00,VWS V13.01,2013-08-16 05:08:00,
2013-08-16 00:09:00,61.9,58.9,30.04,NE,38,0.0,0.0,90,0.00,,---,0.00,VWS V13.01,2013-08-16 05:09:00,
2013-08-16 00:10:00,61.9,58.9,30.04,NE,38,0.0,0.0,90,0.00,,---,0.00,VWS V13.01,2013-08-16 05:10:00,
2013-08-16 00:11:00,61.9,58.9,30.04,NE,38,0.0,0.0,90,0.00,,---,0.00,VWS V13.01,2013-08-16 05:11:00,
2013-08-16 00:12:00,62.0,59.3,30.04,NE,39,0.0,2.0,91,0.00,,---,0.00,VWS V13.01,2013-08-16 05:12:00,
2013-08-16 00:13:00,61.8,58.8,30.04,NE,39,0.0,0.0,90,0.00,,---,0.00,VWS V13.01,2013-08-16 05:13:00,
2013-08-16 00:14:00,61.8,59.2,30.04,NE,39,0.0,0.0,91,0.00,,---,0.00,VWS V13.01,2013-08-16 05:14:00,
2013-08-16 00:15:00,61.8,59.2,30.04,NE,39,0.0,0.0,91,0.00,,---,0.00,VWS V13.01,2013-08-16 05:15:00,
2013-08-16 00:16:00,61.7,59.0,30.04,NE,38,0.0,0.0,91,0.00,,---,0.00,VWS V13.01,2013-08-16 05:16:00,
2013-08-16 00:17:00,61.7,59.0,30.04,NE,38,0.0,0.0,91,0.00,,---,0.00,VWS V13.01,2013-08-16 05:17:00,
2013-08-16 00:18:00,61.7,59.0,30.04,NE,38,0.0,0.0,91,0.00,,---,0.00,VWS V13.01,2013-08-16 05:18:00,
2013-08-16 00:19:00,61.7,59.0,30.04,NE,39,0.0,0.0,91,0.00,,---,0.00,VWS V13.01,2013-08-16 05:19:00,
2013-08-16 00:20:00,61.7,59.0,30.04,NE,39,0.0,0.0,91,0.00,,---,0.00,VWS V13.01,2013-08-16 05:20:00,
2013-08-16 00:21:00,61.7,59.0,30.04,NE,39,0.0,0.0,91,0.00,,---,0.00,VWS V13.01,2013-08-16 05:21:00,
2013-08-16 00:22:00,61.7,59.0,30.04,NE,38,0.0,0.0,91,0.00,,---,0.00,VWS V13.01,2013-08-16 05:22:00,
2013-08-16 00:23:00,61.7,59.0,30.04,NE,38,0.0,0.0,91,0.00,,---,0.00,VWS V13.01,2013-08-16 05:23:00,
2013-08-16 00:24:00,61.8,59.2,30.04,NE,38,0.0,0.0,91,0.00,,---,0.00,VWS V13.01,2013-08-16 05:24:00,
2013-08-16 00:25:00,61.7,59.0,30.04,NE,39,0.0,0.0,91,0.00,,---,0.00,VWS V13.01,2013-08-16 05:25:00,
2013-08-16 00:26:00,61.7,59.0,30.04,NE,39,0.0,0.0,91,0.00,,---,0.00,VWS V13.01,2013-08-16 05:26:00,
2013-08-16 00:27:00,61.8,59.2,30.04,NE,39,0.0,0.0,91,0.00,,---,0.00,VWS V13.01,2013-08-16 05:27:00,
2013-08-16 00:28:00,61.8,59.2,30.04,NE,39,0.0,0.0,91,0.00,,---,0.00,VWS V13.01,2013-08-16 05:28:00,
2013-08-16 00:29:00,61.8,59.2,30.04,NE,39,0.0,0.0,91,0.00,,---,0.00,VWS V13.01,2013-08-16 05:29:00,
2013-08-16 00:30:00,61.8,59.2,30.04,NE,38,0.0,0.0,91,0.00,,---,0.00,VWS V13.01,2013-08-16 05:30:00,
2013-08-16 00:31:00,61.9,59.2,30.04,NE,39,0.0,0.0,91,0.00,,---,0.00,VWS V13.01,2013-08-16 05:31:00,
2013-08-16 00:32:00,61.9,59.2,30.04,NE,39,0.0,0.0,91,0.00,,---,0.00,VWS V13.01,2013-08-16 05:32:00,
2013-08-16 00:33:00,61.9,59.2,30.04,NE,39,0.0,0.0,91,0.00,,---,0.00,VWS V13.01,2013-08-16 05:33:00,
2013-08-16 00:34:00,62.0,59.3,30.04,NE,39,0.0,0.0,91,0.00,,---,0.00,VWS V13.01,2013-08-16 05:34:00,
2013-08-16 00:35:00,62.0,59.3,30.04,NE,39,0.0,0.0,91,0.00,,---,0.00,VWS V13.01,2013-08-16 05:35:00,
2013-08-16 00:36:00,62.0,59.3,30.04,NE,38,0.0,0.0,91,0.00,,---,0.00,VWS V13.01,2013-08-16 05:36:00,
2013-08-16 00:37:00,62.0,59.3,30.04,NE,38,0.0,0.0,91,0.00,,---,0.00,VWS V13.01,2013-08-16 05:37:00,
2013-08-16 00:38:00,62.0,59.3,30.04,NE,39,0.0,0.0,91,0.00,,---,0.00,VWS V13.01,2013-08-16 05:38:00,
2013-08-16 00:39:00,62.1,59.5,30.04,NE,39,0.0,0.0,91,0.00,,---,0.00,VWS V13.01,2013-08-16 05:39:00,
2013-08-16 00:40:00,62.1,59.5,30.04,NE,39,0.0,0.0,91,0.00,,---,0.00,VWS V13.01,2013-08-16 05:40:00,
2013-08-16 00:41:00,62.1,59.5,30.04,NE,39,0.0,0.0,91,0.00,,---,0.00,VWS V13.01,2013-08-16 05:41:00,
2013-08-16 00:42:00,62.1,59.5,30.03,NE,39,0.0,0.0,91,0.00,,---,0.00,VWS V13.01,2013-08-16 05:42:00,
2013-08-16 00:43:00,61.8,58.8,30.04,NE,38,0.0,0.0,90,0.00,,---,0.00,VWS V13.01,2013-08-16 05:43:00,
2013-08-16 00:44:00,62.1,59.5,30.04,NE,38,0.0,0.0,91,0.00,,---,0.00,VWS V13.01,2013-08-16 05:44:00,
2013-08-16 00:45:00,62.2,59.5,30.04,NE,39,0.0,0.0,91,0.00,,---,0.00,VWS V13.01,2013-08-16 05:45:00,
2013-08-16 00:46:00,62.2,59.5,30.04,NE,39,0.0,0.0,91,0.00,,---,0.00,VWS V13.01,2013-08-16 05:46:00,
2013-08-16 00:47:00,62.2,59.5,30.04,NE,39,0.0,0.0,91,0.00,,---,0.00,VWS V13.01,2013-08-16 05:47:00,
2013-08-16 00:48:00,61.7,59.0,30.04,NE,39,0.0,0.0,91,0.00,,---,0.00,VWS V13.01,2013-08-16 05:48:00,
2013-08-16 00:49:00,62.2,59.5,30.04,NE,39,0.0,0.0,91,0.00,,---,0.00,VWS V13.01,2013-08-16 05:49:00,
2013-08-16 00:50:00,62.2,59.5,30.04,NE,38,0.0,0.0,91,0.00,,---,0.00,VWS V13.01,2013-08-16 05:50:00,
2013-08-16 00:51:00,62.2,59.5,30.03,NE,38,0.0,0.0,91,0.00,,---,0.00,VWS V13.01,2013-08-16 05:51:00,
2013-08-16 00:52:00,62.2,59.5,30.03,NE,38,0.0,0.0,91,0.00,,---,0.00,VWS V13.01,2013-08-16 05:52:00,
2013-08-16 00:53:00,61.7,59.0,30.04,NE,39,0.0,0.0,91,0.00,,---,0.00,VWS V13.01,2013-08-16 05:53:00,
2013-08-16 00:54:00,62.2,59.5,30.03,NE,39,0.0,0.0,91,0.00,,---,0.00,VWS V13.01,2013-08-16 05:54:00,
2013-08-16 00:55:00,62.2,59.5,30.03,NE,39,0.0,0.0,91,0.00,,---,0.00,VWS V13.01,2013-08-16 05:55:00,
2013-08-16 00:56:00,62.2,59.5,30.03,NE,39,0.0,0.0,91,0.00,,---,0.00,VWS V13.01,2013-08-16 05:56:00,
2013-08-16 00:57:00,62.2,59.5,30.03,NE,38,0.0,0.0,91,0.00,,---,0.00,VWS V13.01,2013-08-16 05:57:00,
2013-08-16 00:58:00,61.8,59.2,30.04,NE,39,0.0,0.0,91,0.00,,---,0.00,VWS V13.01,2013-08-16 05:58:00,
2013-08-16 00:59:00,62.1,59.5,30.03,NE,38,0.0,0.0,91,0.00,,---,0.00,VWS V13.01,2013-08-16 05:59:00,
2013-08-16 01:00:00,62.1,59.5,30.03,NE,38,0.0,1.0,91,0.00,,---,0.00,VWS V13.01,2013-08-16 06:00:00,
2013-08-16 01:01:00,62.1,59.5,30.03,NE,39,0.0,0.0,91,0.00,,---,0.00,VWS V13.01,2013-08-16 06:01:00,
2013-08-16 01:02:00,62.1,59.5,30.03,NE,39,0.0,0.0,91,0.00,,---,0.00,VWS V13.01,2013-08-16 06:02:00,
2013-08-16 01:03:00,61.9,59.2,30.04,NE,38,0.0,0.0,91,0.00,,---,0.00,VWS V13.01,2013-08-16 06:03:00,
2013-08-16 01:04:00,62.1,59.5,30.03,NE,38,0.0,0.0,91,0.00,,---,0.00,VWS V13.01,2013-08-16 06:04:00,
2013-08-16 01:05:00,62.1,59.5,30.03,NE,38,0.0,0.0,91,0.00,,---,0.00,VWS V13.01,2013-08-16 06:05:00,
2013-08-16 01:06:00,62.0,59.3,30.03,NE,39,0.0,0.0,91,0.00,,---,0.00,VWS V13.01,2013-08-16 06:06:00,
2013-08-16 01:07:00,62.0,59.3,30.03,NE,39,0.0,0.0,91,0.00,,---,0.00,VWS V13.01,2013-08-16 06:07:00,
2013-08-16 01:08:00,62.0,59.3,30.04,NE,39,0.0,0.0,91,0.00,,---,0.00,VWS V13.01,2013-08-16 06:08:00,
2013-08-16 01:09:00,62.0,59.3,30.03,NE,39,0.0,0.0,91,0.00,,---,0.00,VWS V13.01,2013-08-16 06:09:00,
2013-08-16 01:10:00,62.0,59.3,30.03,NE,38,0.0,0.0,91,0.00,,---,0.00,VWS V13.01,2013-08-16 06:10:00,
2013-08-16 01:11:00,62.0,59.3,30.03,NE,38,0.0,0.0,91,0.00,,---,0.00,VWS V13.01,2013-08-16 06:11:00,
2013-08-16 01:12:00,62.0,59.3,30.03,NE,39,0.0,0.0,91,0.00,,---,0.00,VWS V13.01,2013-08-16 06:12:00,
2013-08-16 01:13:00,62.1,59.5,30.04,NE,39,0.0,0.0,91,0.00,,---,0.00,VWS V13.01,2013-08-16 06:13:00,
2013-08-16 01:14:00,62.0,59.3,30.03,NE,39,0.0,0.0,91,0.00,,---,0.00,VWS V13.01,2013-08-16 06:14:00,
2013-08-16 01:15:00,61.9,58.9,30.02,NE,39,0.0,0.0,90,0.00,,---,0.00,VWS V13.01,2013-08-16 06:15:00,
2013-08-16 01:16:00,61.9,58.9,30.02,NE,39,0.0,0.0,90,0.00,,---,0.00,VWS V13.01,2013-08-16 06:16:00,
2013-08-16 01:17:00,61.9,58.9,30.02,NE,39,0.0,0.0,90,0.00,,---,0.00,VWS V13.01,2013-08-16 06:17:00,
2013-08-16 01:18:00,62.2,59.5,30.04,NE,39,0.0,0.0,91,0.00,,---,0.00,VWS V13.01,2013-08-16 06:18:00,
2013-08-16 01:19:00,62.0,59.0,30.02,NE,39,0.0,0.0,90,0.00,,---,0.00,VWS V13.01,2013-08-16 06:19:00,
2013-08-16 01:20:00,62.0,59.0,30.02,NE,39,0.0,0.0,90,0.00,,---,0.00,VWS V13.01,2013-08-16 06:20:00,
2013-08-16 01:21:00,62.0,59.0,30.02,NE,39,0.0,0.0,90,0.00,,---,0.00,VWS V13.01,2013-08-16 06:21:00,
2013-08-16 01:22:00,62.0,59.0,30.02,NE,39,0.0,0.0,90,0.00,,---,0.00,VWS V13.01,2013-08-16 06:22:00,
2013-08-16 01:23:00,62.2,59.5,30.03,NE,39,0.0,0.0,91,0.00,,---,0.00,VWS V13.01,2013-08-16 06:23:00,
2013-08-16 01:24:00,62.0,59.0,30.02,NE,39,0.0,0.0,90,0.00,,---,0.00,VWS V13.01,2013-08-16 06:24:00,
2013-08-16 01:25:00,62.0,59.0,30.02,NE,38,0.0,0.0,90,0.00,,---,0.00,VWS V13.01,2013-08-16 06:25:00,
2013-08-16 01:26:00,62.0,59.0,30.02,NE,39,0.0,0.0,90,0.00,,---,0.00,VWS V13.01,2013-08-16 06:26:00,
2013-08-16 01:27:00,62.0,59.0,30.02,NE,38,0.0,0.0,90,0.00,,---,0.00,VWS V13.01,2013-08-16 06:27:00,
2013-08-16 01:28:00,62.1,59.5,30.03,NE,39,0.0,0.0,91,0.00,,---,0.00,VWS V13.01,2013-08-16 06:28:00,
2013-08-16 01:29:00,62.0,59.0,30.02,NE,39,0.0,0.0,90,0.00,,---,0.00,VWS V13.01,2013-08-16 06:29:00,
2013-08-16 01:30:00,62.1,59.1,30.02,NE,39,0.0,0.0,90,0.00,,---,0.00,VWS V13.01,2013-08-16 06:30:00,
2013-08-16 01:31:00,62.1,59.1,30.02,NE,38,0.0,0.0,90,0.00,,---,0.00,VWS V13.01,2013-08-16 06:31:00,
2013-08-16 01:32:00,62.1,59.1,30.02,NE,39,0.0,0.0,90,0.00,,---,0.00,VWS V13.01,2013-08-16 06:32:00,
2013-08-16 01:33:00,62.1,59.5,30.03,NE,39,0.0,0.0,91,0.00,,---,0.00,VWS V13.01,2013-08-16 06:33:00,
2013-08-16 01:34:00,62.1,58.8,30.02,NE,39,0.0,0.0,89,0.00,,---,0.00,VWS V13.01,2013-08-16 06:34:00,
2013-08-16 01:35:00,62.1,58.8,30.02,NE,39,0.0,0.0,89,0.00,,---,0.00,VWS V13.01,2013-08-16 06:35:00,
2013-08-16 01:36:00,62.1,58.8,30.02,NE,39,0.0,0.0,89,0.00,,---,0.00,VWS V13.01,2013-08-16 06:36:00,
2013-08-16 01:37:00,62.2,58.9,30.02,NE,39,0.0,0.0,89,0.00,,---,0.00,VWS V13.01,2013-08-16 06:37:00,
2013-08-16 01:38:00,62.0,59.3,30.03,NE,39,0.0,0.0,91,0.00,,---,0.00,VWS V13.01,2013-08-16 06:38:00,
2013-08-16 01:39:00,62.2,58.9,30.02,NE,38,0.0,0.0,89,0.00,,---,0.00,VWS V13.01,2013-08-16 06:39:00,
2013-08-16 01:40:00,62.2,58.9,30.02,NE,39,0.0,0.0,89,0.00,,---,0.00,VWS V13.01,2013-08-16 06:40:00,
2013-08-16 01:41:00,62.2,58.9,30.02,NE,39,0.0,0.0,89,0.00,,---,0.00,VWS V13.01,2013-08-16 06:41:00,
2013-08-16 01:42:00,62.2,58.9,30.02,NE,39,0.0,0.0,89,0.00,,---,0.00,VWS V13.01,2013-08-16 06:42:00,
2013-08-16 01:43:00,62.0,59.3,30.03,NE,39,0.0,0.0,91,0.00,,---,0.00,VWS V13.01,2013-08-16 06:43:00,
2013-08-16 01:44:00,62.3,59.0,30.01,NE,39,0.0,0.0,89,0.00,,---,0.00,VWS V13.01,2013-08-16 06:44:00,
2013-08-16 01:45:00,62.3,59.0,30.01,NE,38,0.0,0.0,89,0.00,,---,0.00,VWS V13.01,2013-08-16 06:45:00,
2013-08-16 01:46:00,62.3,59.0,30.01,NE,38,0.0,0.0,89,0.00,,---,0.00,VWS V13.01,2013-08-16 06:46:00,
2013-08-16 01:47:00,62.3,59.0,30.01,NE,39,0.0,0.0,89,0.00,,---,0.00,VWS V13.01,2013-08-16 06:47:00,
2013-08-16 01:48:00,62.0,59.0,30.02,NE,39,0.0,0.0,90,0.00,,---,0.00,VWS V13.01,2013-08-16 06:48:00,
2013-08-16 01:49:00,62.3,59.0,30.01,NE,39,0.0,0.0,89,0.00,,---,0.00,VWS V13.01,2013-08-16 06:49:00,
2013-08-16 01:50:00,62.3,59.0,30.01,NE,39,0.0,0.0,89,0.00,,---,0.00,VWS V13.01,2013-08-16 06:50:00,
2013-08-16 01:51:00,62.3,59.0,30.01,NE,39,0.0,0.0,89,0.00,,---,0.00,VWS V13.01,2013-08-16 06:51:00,
2013-08-16 01:52:00,62.3,59.0,30.01,NE,38,0.0,0.0,89,0.00,,---,0.00,VWS V13.01,2013-08-16 06:52:00,
2013-08-16 01:53:00,62.0,59.0,30.02,NE,38,0.0,0.0,90,0.00,,---,0.00,VWS V13.01,2013-08-16 06:53:00,
2013-08-16 01:54:00,62.3,59.0,30.01,NE,39,0.0,0.0,89,0.00,,---,0.00,VWS V13.01,2013-08-16 06:54:00,
2013-08-16 01:55:00,62.3,59.0,30.01,NE,39,0.0,0.0,89,0.00,,---,0.00,VWS V13.01,2013-08-16 06:55:00,
2013-08-16 01:56:00,62.2,58.9,30.01,NE,39,0.0,0.0,89,0.00,,---,0.00,VWS V13.01,2013-08-16 06:56:00,
2013-08-16 01:57:00,62.2,58.9,30.01,NE,39,0.0,0.0,89,0.00,,---,0.00,VWS V13.01,2013-08-16 06:57:00,
2013-08-16 01:58:00,62.0,59.0,30.02,NE,38,0.0,0.0,90,0.00,,---,0.00,VWS V13.01,2013-08-16 06:58:00,
2013-08-16 01:59:00,62.2,58.6,30.01,NE,39,0.0,0.0,88,0.00,,---,0.00,VWS V13.01,2013-08-16 06:59:00,
2013-08-16 02:00:00,62.2,58.6,30.01,NE,39,0.0,0.0,88,0.00,,---,0.00,VWS V13.01,2013-08-16 07:00:00,
2013-08-16 02:01:00,62.1,58.5,30.01,NE,39,0.0,0.0,88,0.00,,---,0.00,VWS V13.01,2013-08-16 07:01:00,
2013-08-16 02:02:00,62.1,58.5,30.01,NE,39,0.0,0.0,88,0.00,,---,0.00,VWS V13.01,2013-08-16 07:02:00,
2013-08-16 02:03:00,62.1,58.8,30.01,NE,39,0.0,0.0,89,0.00,,---,0.00,VWS V13.01,2013-08-16 07:03:00,
2013-08-16 02:04:00,62.1,58.8,30.01,NE,39,0.0,0.0,89,0.00,,---,0.00,VWS V13.01,2013-08-16 07:04:00,
2013-08-16 02:05:00,62.1,58.8,30.01,NE,38,0.0,0.0,89,0.00,,---,0.00,VWS V13.01,2013-08-16 07:05:00,
2013-08-16 02:06:00,62.1,58.5,30.01,NE,38,0.0,0.0,88,0.00,,---,0.00,VWS V13.01,2013-08-16 07:06:00,
2013-08-16 02:07:00,62.1,58.5,30.01,NE,39,0.0,0.0,88,0.00,,---,0.00,VWS V13.01,2013-08-16 07:07:00,
2013-08-16 02:08:00,62.1,58.8,30.01,NE,38,0.0,0.0,89,0.00,,---,0.00,VWS V13.01,2013-08-16 07:08:00,
2013-08-16 02:09:00,62.1,58.8,30.01,NE,39,0.0,0.0,89,0.00,,---,0.00,VWS V13.01,2013-08-16 07:09:00,
2013-08-16 02:10:00,62.1,58.8,30.01,NE,39,0.0,0.0,89,0.00,,---,0.00,VWS V13.01,2013-08-16 07:10:00,
2013-08-16 02:11:00,62.1,58.8,30.01,NE,39,0.0,0.0,89,0.00,,---,0.00,VWS V13.01,2013-08-16 07:11:00,
2013-08-16 02:12:00,62.1,58.8,30.01,NE,38,0.0,0.0,89,0.00,,---,0.00,VWS V13.01,2013-08-16 07:12:00,
2013-08-16 02:13:00,62.1,58.8,30.01,NE,38,0.0,0.0,89,0.00,,---,0.00,VWS V13.01,2013-08-16 07:13:00,
2013-08-16 02:14:00,62.0,58.7,30.01,NE,39,0.0,0.0,89,0.00,,---,0.00,VWS V13.01,2013-08-16 07:14:00,
2013-08-16 02:15:00,62.0,58.7,30.01,NE,39,0.0,0.0,89,0.00,,---,0.00,VWS V13.01,2013-08-16 07:15:00,
2013-08-16 02:16:00,62.0,58.7,30.01,NE,39,0.0,0.0,89,0.00,,---,0.00,VWS V13.01,2013-08-16 07:16:00,
2013-08-16 02:17:00,62.0,58.7,30.01,NE,39,0.0,0.0,89,0.00,,---,0.00,VWS V13.01,2013-08-16 07:17:00,
2013-08-16 02:18:00,61.9,58.6,30.01,NE,39,0.0,0.0,89,0.00,,---,0.00,VWS V13.01,2013-08-16 07:18:00,
2013-08-16 02:19:00,61.9,58.6,30.01,NE,38,0.0,0.0,89,0.00,,---,0.00,VWS V13.01,2013-08-16 07:19:00,
2013-08-16 02:20:00,61.9,58.6,30.01,NE,39,0.0,0.0,89,0.00,,---,0.00,VWS V13.01,2013-08-16 07:20:00,
2013-08-16 02:21:00,61.9,58.9,30.01,NE,38,0.0,0.0,90,0.00,,---,0.00,VWS V13.01,2013-08-16 07:21:00,
2013-08-16 02:22:00,61.8,58.8,30.01,NE,39,1.0,2.0,90,0.00,,---,0.00,VWS V13.01,2013-08-16 07:22:00,
2013-08-16 02:23:00,61.8,58.8,30.01,NE,39,2.0,2.0,90,0.00,,---,0.00,VWS V13.01,2013-08-16 07:23:00,
2013-08-16 02:24:00,61.8,58.8,30.01,NE,38,0.0,2.0,90,0.00,,---,0.00,VWS V13.01,2013-08-16 07:24:00,
2013-08-16 02:25:00,61.7,58.7,30.01,NE,39,0.0,2.0,90,0.00,,---,0.00,VWS V13.01,2013-08-16 07:25:00,
2013-08-16 02:26:00,61.7,58.7,30.01,NE,38,0.0,2.0,90,0.00,,---,0.00,VWS V13.01,2013-08-16 07:26:00,
2013-08-16 02:27:00,61.7,58.7,30.01,NE,38,0.0,2.0,90,0.00,,---,0.00,VWS V13.01,2013-08-16 07:27:00,
2013-08-16 02:28:00,61.7,58.7,30.01,NE,39,0.0,2.0,90,0.00,,---,0.00,VWS V13.01,2013-08-16 07:28:00,
2013-08-16 02:29:00,61.7,58.7,30.01,NE,39,0.0,2.0,90,0.00,,---,0.00,VWS V13.01,2013-08-16 07:29:00,
2013-08-16 02:30:00,61.7,58.7,30.01,NE,39,0.0,2.0,90,0.00,,---,0.00,VWS V13.01,2013-08-16 07:30:00,
2013-08-16 02:31:00,61.7,58.7,30.01,NE,39,0.0,0.0,90,0.00,,---,0.00,VWS V13.01,2013-08-16 07:31:00,
2013-08-16 02:32:00,61.8,58.8,30.01,NE,39,0.0,0.0,90,0.00,,---,0.00,VWS V13.01,2013-08-16 07:32:00,
2013-08-16 02:33:00,61.8,58.8,30.01,NE,39,0.0,0.0,90,0.00,,---,0.00,VWS V13.01,2013-08-16 07:33:00,
2013-08-16 02:34:00,61.8,58.8,30.01,NE,39,0.0,0.0,90,0.00,,---,0.00,VWS V13.01,2013-08-16 07:34:00,
2013-08-16 02:35:00,61.8,58.8,30.01,NE,39,0.0,0.0,90,0.00,,---,0.00,VWS V13.01,2013-08-16 07:35:00,
2013-08-16 02:36:00,61.8,58.8,30.01,NE,39,0.0,0.0,90,0.00,,---,0.00,VWS V13.01,2013-08-16 07:36:00,
2013-08-16 02:37:00,61.8,58.8,30.01,NE,39,0.0,0.0,90,0.00,,---,0.00,VWS V13.01,2013-08-16 07:37:00,
2013-08-16 02:38:00,61.8,58.8,30.01,NE,39,0.0,0.0,90,0.00,,---,0.00,VWS V13.01,2013-08-16 07:38:00,
2013-08-16 02:39:00,61.9,58.9,30.01,NE,39,0.0,0.0,90,0.00,,---,0.00,VWS V13.01,2013-08-16 07:39:00,
2013-08-16 02:40:00,61.9,58.9,30.01,NE,38,0.0,0.0,90,0.00,,---,0.00,VWS V13.01,2013-08-16 07:40:00,
2013-08-16 02:41:00,61.9,59.2,30.01,NE,39,0.0,0.0,91,0.00,,---,0.00,VWS V13.01,2013-08-16 07:41:00,
2013-08-16 02:42:00,61.9,59.2,30.01,NE,39,0.0,0.0,91,0.00,,---,0.00,VWS V13.01,2013-08-16 07:42:00,
2013-08-16 02:43:00,61.9,59.2,30.01,NE,39,0.0,0.0,91,0.00,,---,0.00,VWS V13.01,2013-08-16 07:43:00,
2013-08-16 02:44:00,61.9,58.9,30.01,NE,39,0.0,0.0,90,0.00,,---,0.00,VWS V13.01,2013-08-16 07:44:00,
2013-08-16 02:45:00,61.9,59.2,30.01,NE,39,0.0,0.0,91,0.00,,---,0.00,VWS V13.01,2013-08-16 07:45:00,
2013-08-16 02:46:00,61.9,58.9,30.01,NE,38,0.0,0.0,90,0.00,,---,0.00,VWS V13.01,2013-08-16 07:46:00,
2013-08-16 02:47:00,61.9,58.9,30.01,NE,38,0.0,0.0,90,0.00,,---,0.00,VWS V13.01,2013-08-16 07:47:00,
2013-08-16 02:48:00,61.9,58.9,30.01,NE,39,2.0,2.0,90,0.00,,---,0.00,VWS V13.01,2013-08-16 07:48:00,
2013-08-16 02:49:00,61.9,58.9,30.01,NE,38,0.0,2.0,90,0.00,,---,0.00,VWS V13.01,2013-08-16 07:49:00,
2013-08-16 02:50:00,61.9,58.9,30.01,NE,39,0.0,2.0,90,0.00,,---,0.00,VWS V13.01,2013-08-16 07:50:00,
2013-08-16 02:51:00,62.0,59.0,30.01,NE,39,0.0,2.0,90,0.00,,---,0.00,VWS V13.01,2013-08-16 07:51:00,
2013-08-16 02:52:00,61.9,58.9,30.01,NE,39,0.0,2.0,90,0.00,,---,0.00,VWS V13.01,2013-08-16 07:52:00,
2013-08-16 02:53:00,62.0,59.0,30.01,NE,38,0.0,2.0,90,0.00,,---,0.00,VWS V13.01,2013-08-16 07:53:00,
2013-08-16 02:54:00,62.0,59.0,30.01,NE,38,0.0,2.0,90,0.00,,---,0.00,VWS V13.01,2013-08-16 07:54:00,
2013-08-16 02:55:00,62.0,59.0,30.01,NE,38,2.0,3.0,90,0.00,,---,0.00,VWS V13.01,2013-08-16 07:55:00,
2013-08-16 02:56:00,62.0,59.0,30.01,NE,39,2.0,3.0,90,0.00,,---,0.00,VWS V13.01,2013-08-16 07:56:00,
2013-08-16 02:57:00,62.0,59.0,30.01,NE,39,0.0,3.0,90,0.00,,---,0.00,VWS V13.01,2013-08-16 07:57:00,
2013-08-16 02:58:00,62.0,59.0,30.01,NE,39,0.0,3.0,90,0.00,,---,0.00,VWS V13.01,2013-08-16 07:58:00,
2013-08-16 02:59:00,62.0,59.0,30.01,NE,39,0.0,3.0,90,0.00,,---,0.00,VWS V13.01,2013-08-16 07:59:00,
2013-08-16 03:00:00,62.0,59.0,30.01,NE,38,0.0,3.0,90,0.00,,---,0.00,VWS V13.01,2013-08-16 08:00:00,
2013-08-16 03:01:00,62.0,58.7,30.01,NE,39,0.0,0.0,89,0.00,,---,0.00,VWS V13.01,2013-08-16 08:01:00,
2013-08-16 03:02:00,62.0,58.7,30.01,NE,38,0.0,0.0,89,0.00,,---,0.00,VWS V13.01,2013-08-16 08:02:00,
2013-08-16 03:03:00,62.0,58.7,30.01,NE,39,0.0,0.0,89,0.00,,---,0.00,VWS V13.01,2013-08-16 08:03:00,
2013-08-16 03:04:00,62.0,59.0,30.01,NE,39,0.0,0.0,90,0.00,,---,0.00,VWS V13.01,2013-08-16 08:04:00,
2013-08-16 03:05:00,62.0,59.0,30.01,NE,39,0.0,0.0,90,0.00,,---,0.00,VWS V13.01,2013-08-16 08:05:00,
2013-08-16 03:06:00,62.0,58.7,30.01,NE,39,0.0,0.0,89,0.00,,---,0.00,VWS V13.01,2013-08-16 08:06:00,
2013-08-16 03:07:00,61.9,58.6,30.01,NE,38,0.0,0.0,89,0.00,,---,0.00,VWS V13.01,2013-08-16 08:07:00,
2013-08-16 03:08:00,61.9,58.6,30.01,NE,38,0.0,0.0,89,0.00,,---,0.00,VWS V13.01,2013-08-16 08:08:00,
2013-08-16 03:09:00,61.9,58.6,30.01,NE,39,0.0,0.0,89,0.00,,---,0.00,VWS V13.01,2013-08-16 08:09:00,
2013-08-16 03:10:00,61.9,58.6,30.01,NE,39,0.0,0.0,89,0.00,,---,0.00,VWS V13.01,2013-08-16 08:10:00,
2013-08-16 03:11:00,61.9,58.6,30.01,NE,39,0.0,0.0,89,0.00,,---,0.00,VWS V13.01,2013-08-16 08:11:00,
2013-08-16 03:12:00,61.8,58.8,30.02,NE,38,0.0,0.0,90,0.00,,---,0.00,VWS V13.01,2013-08-16 08:12:00,
2013-08-16 03:13:00,61.8,58.8,30.02,NE,39,0.0,0.0,90,0.00,,---,0.00,VWS V13.01,2013-08-16 08:13:00,
2013-08-16 03:14:00,61.8,58.8,30.02,NE,38,0.0,0.0,90,0.00,,---,0.00,VWS V13.01,2013-08-16 08:14:00,
2013-08-16 03:15:00,61.8,58.8,30.02,NE,38,0.0,0.0,90,0.00,,---,0.00,VWS V13.01,2013-08-16 08:15:00,
2013-08-16 03:16:00,61.8,58.8,30.02,NE,39,0.0,0.0,90,0.00,,---,0.00,VWS V13.01,2013-08-16 08:16:00,
2013-08-16 03:17:00,61.7,58.7,30.02,NE,39,0.0,0.0,90,0.00,,---,0.00,VWS V13.01,2013-08-16 08:17:00,
2013-08-16 03:18:00,61.7,58.7,30.02,NE,39,0.0,0.0,90,0.00,,---,0.00,VWS V13.01,2013-08-16 08:18:00,
2013-08-16 03:19:00,61.7,58.7,30.02,NE,39,0.0,0.0,90,0.00,,---,0.00,VWS V13.01,2013-08-16 08:19:00,
2013-08-16 03:20:00,61.6,58.6,30.02,NE,38,0.0,0.0,90,0.00,,---,0.00,VWS V13.01,2013-08-16 08:20:00,
2013-08-16 03:21:00,61.6,58.6,30.02,NE,38,0.0,0.0,90,0.00,,---,0.00,VWS V13.01,2013-08-16 08:21:00,
2013-08-16 03:22:00,61.6,58.6,30.02,NE,38,0.0,0.0,90,0.00,,---,0.00,VWS V13.01,2013-08-16 08:22:00,
2013-08-16 03:23:00,61.6,58.6,30.02,NE,39,0.0,0.0,90,0.00,,---,0.00,VWS V13.01,2013-08-16 08:23:00,
2013-08-16 03:24:00,61.5,58.8,30.02,NE,39,0.0,0.0,91,0.00,,---,0.00,VWS V13.01,2013-08-16 08:24:00,
2013-08-16 03:25:00,61.5,58.8,30.02,NE,39,0.0,0.0,91,0.00,,---,0.00,VWS V13.01,2013-08-16 08:25:00,
2013-08-16 03:26:00,61.5,58.8,30.02,NE,39,0.0,0.0,91,0.00,,---,0.00,VWS V13.01,2013-08-16 08:26:00,
2013-08-16 03:27:00,61.5,58.8,30.02,NE,39,0.0,0.0,91,0.00,,---,0.00,VWS V13.01,2013-08-16 08:27:00,
2013-08-16 03:28:00,61.5,58.8,30.02,NE,38,0.0,0.0,91,0.00,,---,0.00,VWS V13.01,2013-08-16 08:28:00,
2013-08-16 03:29:00,61.5,58.8,30.02,NE,39,0.0,0.0,91,0.00,,---,0.00,VWS V13.01,2013-08-16 08:29:00,
2013-08-16 03:30:00,61.5,58.8,30.02,NE,39,0.0,0.0,91,0.00,,---,0.00,VWS V13.01,2013-08-16 08:30:00,
2013-08-16 03:31:00,61.5,58.8,30.02,NE,39,0.0,0.0,91,0.00,,---,0.00,VWS V13.01,2013-08-16 08:31:00,
2013-08-16 03:32:00,61.5,58.8,30.02,NE,39,0.0,0.0,91,0.00,,---,0.00,VWS V13.01,2013-08-16 08:32:00,
2013-08-16 03:33:00,61.4,58.8,30.02,NE,39,0.0,0.0,91,0.00,,---,0.00,VWS V13.01,2013-08-16 08:33:00,
2013-08-16 03:34:00,61.4,59.1,30.02,NE,39,0.0,0.0,92,0.00,,---,0.00,VWS V13.01,2013-08-16 08:34:00,
2013-08-16 03:35:00,61.4,59.1,30.02,NE,39,0.0,0.0,92,0.00,,---,0.00,VWS V13.01,2013-08-16 08:35:00,
2013-08-16 03:36:00,61.4,59.1,30.02,NE,39,0.0,0.0,92,0.00,,---,0.00,VWS V13.01,2013-08-16 08:36:00,
2013-08-16 03:37:00,61.5,59.2,30.02,NE,39,0.0,0.0,92,0.00,,---,0.00,VWS V13.01,2013-08-16 08:37:00,
2013-08-16 03:38:00,61.5,59.2,30.02,NE,39,0.0,0.0,92,0.00,,---,0.00,VWS V13.01,2013-08-16 08:38:00,
2013-08-16 03:39:00,61.5,59.2,30.02,NE,39,0.0,0.0,92,0.00,,---,0.00,VWS V13.01,2013-08-16 08:39:00,
2013-08-16 03:40:00,61.5,59.2,30.02,NE,39,0.0,0.0,92,0.00,,---,0.00,VWS V13.01,2013-08-16 08:40:00,
2013-08-16 03:41:00,61.5,59.2,30.02,NE,38,0.0,0.0,92,0.00,,---,0.00,VWS V13.01,2013-08-16 08:41:00,
2013-08-16 03:42:00,61.5,59.2,30.02,NE,38,0.0,0.0,92,0.00,,---,0.00,VWS V13.01,2013-08-16 08:42:00,
2013-08-16 03:43:00,61.5,59.2,30.02,NE,38,0.0,0.0,92,0.00,,---,0.00,VWS V13.01,2013-08-16 08:43:00,
2013-08-16 03:44:00,61.6,59.3,30.02,NE,39,0.0,0.0,92,0.00,,---,0.00,VWS V13.01,2013-08-16 08:44:00,
2013-08-16 03:45:00,61.6,59.3,30.02,NE,39,0.0,0.0,92,0.00,,---,0.00,VWS V13.01,2013-08-16 08:45:00,
2013-08-16 03:46:00,61.6,59.3,30.01,NE,39,0.0,0.0,92,0.00,,---,0.00,VWS V13.01,2013-08-16 08:46:00,
2013-08-16 03:47:00,61.6,59.3,30.02,NE,39,0.0,0.0,92,0.00,,---,0.00,VWS V13.01,2013-08-16 08:47:00,
2013-08-16 03:48:00,61.6,59.3,30.01,NE,38,0.0,0.0,92,0.00,,---,0.00,VWS V13.01,2013-08-16 08:48:00,
2013-08-16 03:49:00,61.7,59.4,30.01,NE,38,0.0,0.0,92,0.00,,---,0.00,VWS V13.01,2013-08-16 08:49:00,
2013-08-16 03:50:00,61.7,59.4,30.01,NE,39,0.0,0.0,92,0.00,,---,0.00,VWS V13.01,2013-08-16 08:50:00,
2013-08-16 03:51:00,61.7,59.4,30.01,NE,39,0.0,0.0,92,0.00,,---,0.00,VWS V13.01,2013-08-16 08:51:00,
2013-08-16 03:52:00,61.8,59.5,30.01,NE,39,0.0,0.0,92,0.00,,---,0.00,VWS V13.01,2013-08-16 08:52:00,
2013-08-16 03:53:00,61.8,59.5,30.01,NE,39,0.0,0.0,92,0.00,,---,0.00,VWS V13.01,2013-08-16 08:53:00,
2013-08-16 03:54:00,61.8,59.5,30.01,NE,39,0.0,0.0,92,0.00,,---,0.00,VWS V13.01,2013-08-16 08:54:00,
2013-08-16 03:55:00,61.9,59.5,30.01,NE,39,0.0,0.0,92,0.00,,---,0.00,VWS V13.01,2013-08-16 08:55:00,
2013-08-16 03:56:00,61.9,59.5,30.01,NE,38,0.0,0.0,92,0.00,,---,0.00,VWS V13.01,2013-08-16 08:56:00,
2013-08-16 03:57:00,61.9,59.5,30.01,NE,39,0.0,0.0,92,0.00,,---,0.00,VWS V13.01,2013-08-16 08:57:00,
2013-08-16 03:58:00,62.0,59.7,30.01,NE,39,0.0,0.0,92,0.00,,---,0.00,VWS V13.01,2013-08-16 08:58:00,
2013-08-16 03:59:00,62.0,59.7,30.02,NE,38,0.0,0.0,92,0.00,,---,0.00,VWS V13.01,2013-08-16 08:59:00,
2013-08-16 04:00:00,62.0,59.3,30.01,NE,38,2.0,2.0,91,0.00,,---,0.00,VWS V13.01,2013-08-16 09:00:00,
2013-08-16 04:01:00,62.1,59.5,30.01,NE,39,0.0,2.0,91,0.00,,---,0.00,VWS V13.01,2013-08-16 09:01:00,
2013-08-16 04:02:00,62.1,59.5,30.02,NE,39,0.0,2.0,91,0.00,,---,0.00,VWS V13.01,2013-08-16 09:02:00,
2013-08-16 04:03:00,62.1,59.8,30.02,NE,39,0.0,2.0,92,0.00,,---,0.00,VWS V13.01,2013-08-16 09:03:00,
2013-08-16 04:04:00,62.2,59.5,30.02,NE,39,0.0,2.0,91,0.00,,---,0.00,VWS V13.01,2013-08-16 09:04:00,
2013-08-16 04:05:00,62.2,59.8,30.02,NE,39,0.0,2.0,92,0.00,,---,0.00,VWS V13.01,2013-08-16 09:05:00,
2013-08-16 04:06:00,62.2,59.8,30.02,NE,39,1.0,2.0,92,0.00,,---,0.00,VWS V13.01,2013-08-16 09:06:00,
2013-08-16 04:07:00,62.3,60.0,30.02,NE,39,0.0,2.0,92,0.00,,---,0.00,VWS V13.01,2013-08-16 09:07:00,
2013-08-16 04:08:00,62.3,60.0,30.02,NE,38,1.0,2.0,92,0.00,,---,0.00,VWS V13.01,2013-08-16 09:08:00,
2013-08-16 04:09:00,62.3,59.6,30.02,NE,38,1.0,2.0,91,0.00,,---,0.00,VWS V13.01,2013-08-16 09:09:00,
2013-08-16 04:10:00,62.3,59.6,30.02,NE,39,2.0,3.0,91,0.00,,---,0.00,VWS V13.01,2013-08-16 09:10:00,
2013-08-16 04:11:00,62.3,59.6,30.02,NE,39,0.0,3.0,91,0.00,,---,0.00,VWS V13.01,2013-08-16 09:11:00,
2013-08-16 04:12:00,62.3,59.6,30.02,NE,39,0.0,3.0,91,0.00,,---,0.00,VWS V13.01,2013-08-16 09:12:00,
2013-08-16 04:13:00,62.3,59.6,30.02,NE,39,0.0,3.0,91,0.00,,---,0.00,VWS V13.01,2013-08-16 09:13:00,
2013-08-16 04:14:00,62.3,59.6,30.02,NE,39,0.0,3.0,91,0.00,,---,0.00,VWS V13.01,2013-08-16 09:14:00,
2013-08-16 04:15:00,62.3,60.0,30.02,NE,38,0.0,3.0,92,0.00,,---,0.00,VWS V13.01,2013-08-16 09:15:00,
2013-08-16 04:16:00,62.3,60.0,30.02,NE,38,0.0,3.0,92,0.00,,---,0.00,VWS V13.01,2013-08-16 09:16:00,
2013-08-16 04:17:00,62.3,60.0,30.02,NE,38,0.0,3.0,92,0.00,,---,0.00,VWS V13.01,2013-08-16 09:17:00,
2013-08-16 04:18:00,62.3,60.0,30.02,NE,39,0.0,3.0,92,0.00,,---,0.00,VWS V13.01,2013-08-16 09:18:00,
2013-08-16 04:19:00,62.3,60.0,30.02,NE,39,0.0,3.0,92,0.00,,---,0.00,VWS V13.01,2013-08-16 09:19:00,
2013-08-16 04:20:00,62.4,60.0,30.02,NE,39,0.0,3.0,92,0.00,,---,0.00,VWS V13.01,2013-08-16 09:20:00,
2013-08-16 04:21:00,62.4,60.0,30.02,NE,39,0.0,3.0,92,0.00,,---,0.00,VWS V13.01,2013-08-16 09:21:00,
2013-08-16 04:22:00,62.4,60.0,30.02,NE,39,0.0,3.0,92,0.00,,---,0.00,VWS V13.01,2013-08-16 09:22:00,
2013-08-16 04:23:00,62.4,60.0,30.02,NE,38,0.0,3.0,92,0.00,,---,0.00,VWS V13.01,2013-08-16 09:23:00,
2013-08-16 04:24:00,62.4,60.0,30.02,NE,38,0.0,3.0,92,0.00,,---,0.00,VWS V13.01,2013-08-16 09:24:00,
2013-08-16 04:25:00,62.4,60.0,30.02,NE,39,0.0,3.0,92,0.00,,---,0.00,VWS V13.01,2013-08-16 09:25:00,
2013-08-16 04:26:00,62.4,60.0,30.02,NE,39,0.0,3.0,92,0.00,,---,0.00,VWS V13.01,2013-08-16 09:26:00,
2013-08-16 04:27:00,62.4,60.0,30.02,NE,39,0.0,3.0,92,0.00,,---,0.00,VWS V13.01,2013-08-16 09:27:00,
2013-08-16 04:28:00,62.3,60.0,30.02,NE,39,0.0,3.0,92,0.00,,---,0.00,VWS V13.01,2013-08-16 09:28:00,
2013-08-16 04:29:00,62.3,60.0,30.02,NE,39,0.0,3.0,92,0.00,,---,0.00,VWS V13.01,2013-08-16 09:29:00,
2013-08-16 04:30:00,62.3,60.0,30.02,NE,38,0.0,3.0,92,0.00,,---,0.00,VWS V13.01,2013-08-16 09:30:00,
2013-08-16 04:31:00,62.3,60.0,30.02,NE,38,0.0,0.0,92,0.00,,---,0.00,VWS V13.01,2013-08-16 09:31:00,
2013-08-16 04:36:00,62.3,60.0,30.02,NE,39,0.0,0.0,92,0.00,,---,0.00,VWS V13.01,2013-08-16 09:36:00,
2013-08-16 04:37:00,62.4,60.0,30.02,NE,39,0.0,0.0,92,0.00,,---,0.00,VWS V13.01,2013-08-16 09:37:00,
2013-08-16 04:38:00,62.3,60.0,30.01,NE,39,0.0,0.0,92,0.00,,---,0.00,VWS V13.01,2013-08-16 09:38:00,
2013-08-16 04:39:00,62.3,60.0,30.01,NE,39,0.0,0.0,92,0.00,,---,0.00,VWS V13.01,2013-08-16 09:39:00,
2013-08-16 04:40:00,62.4,60.0,30.02,NE,39,0.0,0.0,92,0.00,,---,0.00,VWS V13.01,2013-08-16 09:40:00,
2013-08-16 04:41:00,62.3,60.0,30.01,NE,39,0.0,0.0,92,0.00,,---,0.00,VWS V13.01,2013-08-16 09:41:00,
2013-08-16 04:42:00,62.3,59.6,30.02,NE,39,0.0,0.0,91,0.00,,---,0.00,VWS V13.01,2013-08-16 09:42:00,
2013-08-16 04:43:00,62.3,59.6,30.02,NE,39,0.0,0.0,91,0.00,,---,0.00,VWS V13.01,2013-08-16 09:43:00,
2013-08-16 04:44:00,62.3,59.6,30.02,NE,39,0.0,0.0,91,0.00,,---,0.00,VWS V13.01,2013-08-16 09:44:00,
2013-08-16 04:45:00,62.3,59.6,30.02,NE,39,0.0,0.0,91,0.00,,---,0.00,VWS V13.01,2013-08-16 09:45:00,
2013-08-16 04:46:00,62.3,59.6,30.02,NE,39,0.0,0.0,91,0.00,,---,0.00,VWS V13.01,2013-08-16 09:46:00,
2013-08-16 04:47:00,62.3,59.6,30.02,NE,39,0.0,0.0,91,0.00,,---,0.00,VWS V13.01,2013-08-16 09:47:00,
2013-08-16 04:48:00,62.3,59.6,30.02,NE,39,0.0,0.0,91,0.00,,---,0.00,VWS V13.01,2013-08-16 09:48:00,
2013-08-16 04:49:00,62.3,59.6,30.02,NE,38,0.0,0.0,91,0.00,,---,0.00,VWS V13.01,2013-08-16 09:49:00,
2013-08-16 04:50:00,62.3,59.6,30.02,NE,39,0.0,0.0,91,0.00,,---,0.00,VWS V13.01,2013-08-16 09:50:00,
2013-08-16 04:51:00,62.3,59.6,30.02,NE,39,0.0,0.0,91,0.00,,---,0.00,VWS V13.01,2013-08-16 09:51:00,
2013-08-16 04:52:00,62.3,59.6,30.02,NE,38,0.0,0.0,91,0.00,,---,0.00,VWS V13.01,2013-08-16 09:52:00,
2013-08-16 04:53:00,62.3,59.6,30.02,NE,38,0.0,1.0,91,0.00,,---,0.00,VWS V13.01,2013-08-16 09:53:00,
2013-08-16 04:54:00,62.3,59.6,30.02,NE,39,0.0,1.0,91,0.00,,---,0.00,VWS V13.01,2013-08-16 09:54:00,
2013-08-16 04:55:00,62.4,59.7,30.02,NE,39,0.0,1.0,91,0.00,,---,0.00,VWS V13.01,2013-08-16 09:55:00,
2013-08-16 04:56:00,62.4,59.7,30.02,NE,38,0.0,1.0,91,0.00,,---,0.00,VWS V13.01,2013-08-16 09:56:00,
2013-08-16 04:57:00,62.4,59.7,30.02,NE,38,0.0,1.0,91,0.00,,---,0.00,VWS V13.01,2013-08-16 09:57:00,
2013-08-16 04:58:00,62.4,59.4,30.02,NE,38,0.0,1.0,90,0.00,,---,0.00,VWS V13.01,2013-08-16 09:58:00,
2013-08-16 04:59:00,62.4,59.4,30.02,NE,38,0.0,1.0,90,0.00,,---,0.00,VWS V13.01,2013-08-16 09:59:00,
2013-08-16 05:00:00,62.4,59.4,30.02,NE,39,0.0,1.0,90,0.00,,---,0.00,VWS V13.01,2013-08-16 10:00:00,
2013-08-16 05:01:00,62.5,59.5,30.02,NE,39,0.0,1.0,90,0.00,,---,0.00,VWS V13.01,2013-08-16 10:01:00,
2013-08-16 05:02:00,62.4,59.4,30.02,NE,39,0.0,1.0,90,0.00,,---,0.00,VWS V13.01,2013-08-16 10:02:00,
2013-08-16 05:03:00,62.5,59.5,30.02,NE,39,0.0,1.0,90,0.00,,---,0.00,VWS V13.01,2013-08-16 10:03:00,
2013-08-16 05:04:00,62.5,59.5,30.02,NE,39,0.0,1.0,90,0.00,,---,0.00,VWS V13.01,2013-08-16 10:04:00,
2013-08-16 05:05:00,62.5,59.5,30.02,NE,38,0.0,1.0,90,0.00,,---,0.00,VWS V13.01,2013-08-16 10:05:00,
2013-08-16 05:06:00,62.5,59.5,30.03,NE,39,0.0,1.0,90,0.00,,---,0.00,VWS V13.01,2013-08-16 10:06:00,
2013-08-16 05:07:00,62.5,59.5,30.02,NE,39,0.0,1.0,90,0.00,,---,0.00,VWS V13.01,2013-08-16 10:07:00,
2013-08-16 05:08:00,62.5,59.5,30.02,NE,39,0.0,1.0,90,0.00,,---,0.00,VWS V13.01,2013-08-16 10:08:00,
2013-08-16 05:09:00,62.6,59.6,30.03,NE,39,0.0,1.0,90,0.00,,---,0.00,VWS V13.01,2013-08-16 10:09:00,
2013-08-16 05:10:00,62.6,60.2,30.03,NE,38,0.0,1.0,92,0.00,,---,0.00,VWS V13.01,2013-08-16 10:10:00,
2013-08-16 05:11:00,62.6,60.2,30.03,NE,38,0.0,1.0,92,0.00,,---,0.00,VWS V13.01,2013-08-16 10:11:00,
2013-08-16 05:12:00,62.6,60.2,30.02,NE,39,0.0,1.0,92,0.00,,---,0.00,VWS V13.01,2013-08-16 10:12:00,
2013-08-16 05:13:00,62.6,59.6,30.02,NE,39,0.0,1.0,90,0.00,,---,0.00,VWS V13.01,2013-08-16 10:13:00,
2013-08-16 05:14:00,62.7,59.7,30.02,NE,39,0.0,1.0,90,0.00,,---,0.00,VWS V13.01,2013-08-16 10:14:00,
2013-08-16 05:15:00,62.7,59.7,30.02,NE,39,0.0,1.0,90,0.00,,---,0.00,VWS V13.01,2013-08-16 10:15:00,
2013-08-16 05:16:00,62.7,59.7,30.02,NE,39,0.0,1.0,90,0.00,,---,0.00,VWS V13.01,2013-08-16 10:16:00,
2013-08-16 05:17:00,62.7,59.7,30.03,NE,38,0.0,1.0,90,0.00,,---,0.00,VWS V13.01,2013-08-16 10:17:00,
2013-08-16 05:18:00,62.8,59.8,30.03,NE,38,0.0,1.0,90,0.00,,---,0.00,VWS V13.01,2013-08-16 10:18:00,
2013-08-16 05:19:00,62.8,59.8,30.03,NE,39,0.0,1.0,90,0.00,,---,0.00,VWS V13.01,2013-08-16 10:19:00,
2013-08-16 05:20:00,62.8,59.8,30.03,NE,39,0.0,1.0,90,0.00,,---,0.00,VWS V13.01,2013-08-16 10:20:00,
2013-08-16 05:21:00,62.8,59.8,30.03,NE,39,0.0,1.0,90,0.00,,---,0.00,VWS V13.01,2013-08-16 10:21:00,
2013-08-16 05:22:00,62.9,59.9,30.03,NE,39,0.0,1.0,90,0.00,,---,0.00,VWS V13.01,2013-08-16 10:22:00,
2013-08-16 05:23:00,62.9,59.9,30.03,NE,39,0.0,1.0,90,0.00,,---,0.00,VWS V13.01,2013-08-16 10:23:00,
2013-08-16 05:24:00,62.9,59.9,30.03,NE,39,0.0,1.0,90,0.00,,---,0.00,VWS V13.01,2013-08-16 10:24:00,
2013-08-16 05:25:00,62.9,59.9,30.03,NE,39,0.0,1.0,90,0.00,,---,0.00,VWS V13.01,2013-08-16 10:25:00,
2013-08-16 05:26:00,62.9,59.9,30.03,NE,39,0.0,1.0,90,0.00,,---,0.00,VWS V13.01,2013-08-16 10:26:00,
2013-08-16 05:27:00,63.0,59.7,30.03,NE,38,1.0,1.0,89,0.00,,---,0.00,VWS V13.01,2013-08-16 10:27:00,
2013-08-16 05:28:00,63.0,59.7,30.03,NE,39,0.0,1.0,89,0.00,,---,0.00,VWS V13.01,2013-08-16 10:28:00,
2013-08-16 05:29:00,63.0,60.0,30.03,NE,39,0.0,1.0,90,0.00,,---,0.00,VWS V13.01,2013-08-16 10:29:00,
2013-08-16 05:30:00,63.0,60.0,30.03,NE,39,0.0,1.0,90,0.00,,---,0.00,VWS V13.01,2013-08-16 10:30:00,
2013-08-16 05:31:00,63.0,60.0,30.03,NE,38,0.0,1.0,90,0.00,,---,0.00,VWS V13.01,2013-08-16 10:31:00,
2013-08-16 05:32:00,63.0,60.0,30.03,NE,38,1.0,2.0,90,0.00,,---,0.00,VWS V13.01,2013-08-16 10:32:00,
2013-08-16 05:33:00,63.0,60.0,30.03,NE,38,0.0,2.0,90,0.00,,---,0.00,VWS V13.01,2013-08-16 10:33:00,
2013-08-16 05:34:00,63.0,60.0,30.03,NE,38,0.0,2.0,90,0.00,,---,0.00,VWS V13.01,2013-08-16 10:34:00,
2013-08-16 05:35:00,63.0,60.0,30.03,NE,39,0.0,2.0,90,0.00,,---,0.00,VWS V13.01,2013-08-16 10:35:00,
2013-08-16 05:36:00,63.0,60.0,30.03,NE,39,0.0,2.0,90,0.00,,---,0.00,VWS V13.01,2013-08-16 10:36:00,
2013-08-16 05:37:00,63.0,60.0,30.03,NE,38,2.0,3.0,90,0.00,,---,0.00,VWS V13.01,2013-08-16 10:37:00,
2013-08-16 05:38:00,63.0,60.0,30.03,NE,39,2.0,3.0,90,0.00,,---,0.00,VWS V13.01,2013-08-16 10:38:00,
2013-08-16 05:39:00,62.9,59.9,30.03,NE,39,0.0,3.0,90,0.00,,---,0.00,VWS V13.01,2013-08-16 10:39:00,
2013-08-16 05:40:00,62.9,59.9,30.03,NE,39,0.0,3.0,90,0.00,,---,0.00,VWS V13.01,2013-08-16 10:40:00,
2013-08-16 05:41:00,62.9,59.9,30.03,NE,39,0.0,3.0,90,0.00,,---,0.00,VWS V13.01,2013-08-16 10:41:00,
2013-08-16 05:42:00,62.8,59.8,30.04,NE,39,0.0,3.0,90,0.00,,---,0.00,VWS V13.01,2013-08-16 10:42:00,
2013-08-16 05:43:00,62.8,59.8,30.03,NE,39,0.0,3.0,90,0.00,,---,0.00,VWS V13.01,2013-08-16 10:43:00,
2013-08-16 05:44:00,62.8,60.1,30.03,NE,39,1.0,3.0,91,0.00,,---,0.00,VWS V13.01,2013-08-16 10:44:00,
2013-08-16 05:45:00,62.8,60.1,30.04,NE,38,0.0,3.0,91,0.00,,---,0.00,VWS V13.01,2013-08-16 10:45:00,
2013-08-16 05:46:00,62.7,60.0,30.04,NE,39,0.0,3.0,91,0.00,,---,0.00,VWS V13.01,2013-08-16 10:46:00,
2013-08-16 05:47:00,62.7,60.0,30.04,NE,39,0.0,3.0,91,0.00,,---,0.00,VWS V13.01,2013-08-16 10:47:00,
2013-08-16 05:48:00,62.7,60.0,30.04,NE,38,0.0,3.0,91,0.00,,---,0.00,VWS V13.01,2013-08-16 10:48:00,
2013-08-16 05:49:00,62.7,60.0,30.04,NE,38,0.0,3.0,91,0.00,,---,0.00,VWS V13.01,2013-08-16 10:49:00,
2013-08-16 05:50:00,62.7,60.0,30.04,NE,39,0.0,3.0,91,0.00,,---,0.00,VWS V13.01,2013-08-16 10:50:00,
2013-08-16 05:51:00,62.7,60.0,30.04,NE,38,0.0,3.0,91,0.00,,---,0.00,VWS V13.01,2013-08-16 10:51:00,
2013-08-16 05:52:00,62.7,60.0,30.04,NE,38,0.0,3.0,91,0.00,,---,0.00,VWS V13.01,2013-08-16 10:52:00,
2013-08-16 05:53:00,62.7,60.0,30.04,NE,39,0.0,3.0,91,0.00,,---,0.00,VWS V13.01,2013-08-16 10:53:00,
2013-08-16 05:54:00,62.6,59.9,30.04,NE,39,0.0,3.0,91,0.00,,---,0.00,VWS V13.01,2013-08-16 10:54:00,
2013-08-16 05:55:00,62.6,59.9,30.04,NE,39,0.0,3.0,91,0.00,,---,0.00,VWS V13.01,2013-08-16 10:55:00,
2013-08-16 05:56:00,62.6,59.9,30.04,NE,39,0.0,3.0,91,0.00,,---,0.00,VWS V13.01,2013-08-16 10:56:00,
2013-08-16 05:57:00,62.7,60.0,30.04,NE,39,0.0,3.0,91,0.00,,---,0.00,VWS V13.01,2013-08-16 10:57:00,
2013-08-16 05:58:00,62.7,60.0,30.04,NE,38,0.0,3.0,91,0.00,,---,0.00,VWS V13.01,2013-08-16 10:58:00,
2013-08-16 05:59:00,62.7,60.0,30.04,NE,39,0.0,3.0,91,0.00,,---,0.00,VWS V13.01,2013-08-16 10:59:00,
2013-08-16 06:00:00,62.6,59.9,30.04,NE,39,0.0,3.0,91,0.00,,---,0.00,VWS V13.01,2013-08-16 11:00:00,
2013-08-16 06:01:00,62.7,60.0,30.04,NE,38,0.0,0.0,91,0.00,,---,0.00,VWS V13.01,2013-08-16 11:01:00,
2013-08-16 06:02:00,62.7,60.0,30.04,NE,39,0.0,0.0,91,0.00,,---,0.00,VWS V13.01,2013-08-16 11:02:00,
2013-08-16 06:03:00,62.7,60.0,30.04,NE,38,0.0,0.0,91,0.00,,---,0.00,VWS V13.01,2013-08-16 11:03:00,
2013-08-16 06:04:00,62.7,60.0,30.04,NE,38,0.0,0.0,91,0.00,,---,0.00,VWS V13.01,2013-08-16 11:04:00,
2013-08-16 06:05:00,62.7,60.0,30.04,NE,39,0.0,0.0,91,0.00,,---,0.00,VWS V13.01,2013-08-16 11:05:00,
2013-08-16 06:06:00,62.7,60.0,30.04,NE,39,0.0,0.0,91,0.00,,---,0.00,VWS V13.01,2013-08-16 11:06:00,
2013-08-16 06:07:00,62.7,60.0,30.04,NE,39,0.0,0.0,91,0.00,,---,0.00,VWS V13.01,2013-08-16 11:07:00,
2013-08-16 06:08:00,62.7,60.0,30.04,NE,38,0.0,0.0,91,0.00,,---,0.00,VWS V13.01,2013-08-16 11:08:00,
2013-08-16 06:09:00,62.7,60.0,30.04,NE,39,0.0,0.0,91,0.00,,---,0.00,VWS V13.01,2013-08-16 11:09:00,
2013-08-16 06:10:00,62.8,60.1,30.04,NE,39,0.0,0.0,91,0.00,,---,0.00,VWS V13.01,2013-08-16 11:10:00,
2013-08-16 06:11:00,62.8,60.1,30.04,NE,39,0.0,0.0,91,0.00,,---,0.00,VWS V13.01,2013-08-16 11:11:00,
2013-08-16 06:12:00,62.8,60.1,30.04,NE,38,0.0,2.0,91,0.00,,---,0.00,VWS V13.01,2013-08-16 11:12:00,
2013-08-16 06:13:00,62.8,60.1,30.04,NE,39,0.0,2.0,91,0.00,,---,0.00,VWS V13.01,2013-08-16 11:13:00,
2013-08-16 06:14:00,62.8,60.1,30.04,NE,38,0.0,2.0,91,0.00,,---,0.00,VWS V13.01,2013-08-16 11:14:00,
2013-08-16 06:15:00,62.8,60.1,30.04,NE,39,0.0,2.0,91,0.00,,---,0.00,VWS V13.01,2013-08-16 11:15:00,
2013-08-16 06:16:00,62.8,60.1,30.04,NE,39,0.0,2.0,91,0.00,,---,0.00,VWS V13.01,2013-08-16 11:16:00,
2013-08-16 06:17:00,62.8,60.1,30.04,NE,39,0.0,2.0,91,0.00,,---,0.00,VWS V13.01,2013-08-16 11:17:00,
2013-08-16 06:18:00,62.9,60.2,30.04,NE,39,0.0,2.0,91,0.00,,---,0.00,VWS V13.01,2013-08-16 11:18:00,
2013-08-16 06:19:00,62.9,60.2,30.04,NE,38,0.0,2.0,91,0.00,,---,0.00,VWS V13.01,2013-08-16 11:19:00,
2013-08-16 06:20:00,62.9,60.2,30.04,NE,38,0.0,2.0,91,0.00,,---,0.00,VWS V13.01,2013-08-16 11:20:00,
2013-08-16 06:21:00,62.9,60.2,30.04,NE,38,0.0,2.0,91,0.00,,---,0.00,VWS V13.01,2013-08-16 11:21:00,
2013-08-16 06:22:00,62.9,60.2,30.04,NE,39,0.0,2.0,91,0.00,,---,0.00,VWS V13.01,2013-08-16 11:22:00,
2013-08-16 06:23:00,62.9,60.2,30.04,NE,38,0.0,2.0,91,0.00,,---,0.00,VWS V13.01,2013-08-16 11:23:00,
2013-08-16 06:24:00,62.9,60.2,30.04,NE,39,0.0,2.0,91,0.00,,---,0.00,VWS V13.01,2013-08-16 11:24:00,
2013-08-16 06:25:00,62.9,60.2,30.04,NE,39,0.0,2.0,91,0.00,,---,0.00,VWS V13.01,2013-08-16 11:25:00,
2013-08-16 06:26:00,63.0,60.3,30.04,NE,38,0.0,2.0,91,0.00,,---,0.00,VWS V13.01,2013-08-16 11:26:00,
2013-08-16 06:27:00,63.0,60.3,30.04,NE,38,0.0,2.0,91,0.00,,---,0.00,VWS V13.01,2013-08-16 11:27:00,
2013-08-16 06:28:00,63.0,60.3,30.04,NE,38,0.0,2.0,91,0.00,,---,0.00,VWS V13.01,2013-08-16 11:28:00,
2013-08-16 06:29:00,63.0,60.3,30.04,NE,39,0.0,2.0,91,0.00,,---,0.00,VWS V13.01,2013-08-16 11:29:00,
2013-08-16 06:30:00,63.1,60.4,30.04,NE,39,0.0,2.0,91,0.00,,---,0.00,VWS V13.01,2013-08-16 11:30:00,
2013-08-16 06:31:00,63.1,60.4,30.04,NE,39,0.0,0.0,91,0.00,,---,0.00,VWS V13.01,2013-08-16 11:31:00,
2013-08-16 06:32:00,63.1,60.4,30.04,NE,39,0.0,0.0,91,0.00,,---,0.00,VWS V13.01,2013-08-16 11:32:00,
2013-08-16 06:33:00,63.1,60.4,30.04,NE,38,0.0,0.0,91,0.00,,---,0.00,VWS V13.01,2013-08-16 11:33:00,
2013-08-16 06:34:00,63.1,60.4,30.05,NE,39,0.0,0.0,91,0.00,,---,0.00,VWS V13.01,2013-08-16 11:34:00,
2013-08-16 06:35:00,63.1,60.4,30.05,NE,38,0.0,0.0,91,0.00,,---,0.00,VWS V13.01,2013-08-16 11:35:00,
2013-08-16 06:36:00,63.2,60.5,30.05,NE,39,0.0,0.0,91,0.00,,---,0.00,VWS V13.01,2013-08-16 11:36:00,
2013-08-16 06:37:00,63.2,60.5,30.05,NE,39,0.0,0.0,91,0.00,,---,0.00,VWS V13.01,2013-08-16 11:37:00,
2013-08-16 06:38:00,63.2,60.5,30.05,NE,39,0.0,0.0,91,0.00,,---,0.00,VWS V13.01,2013-08-16 11:38:00,
2013-08-16 06:39:00,63.2,60.5,30.05,NE,38,0.0,0.0,91,0.00,,---,0.00,VWS V13.01,2013-08-16 11:39:00,
2013-08-16 06:40:00,63.2,60.5,30.05,NE,39,0.0,0.0,91,0.00,,---,0.00,VWS V13.01,2013-08-16 11:40:00,
2013-08-16 06:41:00,63.3,60.6,30.05,NE,39,0.0,0.0,91,0.00,,---,0.00,VWS V13.01,2013-08-16 11:41:00,
2013-08-16 06:42:00,63.3,60.6,30.05,NE,39,0.0,0.0,91,0.00,,---,0.00,VWS V13.01,2013-08-16 11:42:00,
2013-08-16 06:43:00,63.3,60.6,30.05,NE,39,0.0,0.0,91,0.00,,---,0.00,VWS V13.01,2013-08-16 11:43:00,
2013-08-16 06:44:00,63.3,60.6,30.05,NE,39,0.0,0.0,91,0.00,,---,0.00,VWS V13.01,2013-08-16 11:44:00,
2013-08-16 06:45:00,63.3,60.6,30.05,NE,39,0.0,0.0,91,0.00,,---,0.00,VWS V13.01,2013-08-16 11:45:00,
2013-08-16 06:46:00,63.3,60.6,30.05,NE,38,0.0,0.0,91,0.00,,---,0.00,VWS V13.01,2013-08-16 11:46:00,
2013-08-16 06:47:00,63.3,60.6,30.05,NE,39,0.0,0.0,91,0.00,,---,0.00,VWS V13.01,2013-08-16 11:47:00,
2013-08-16 06:48:00,63.4,61.0,30.05,NE,39,0.0,0.0,92,0.00,,---,0.00,VWS V13.01,2013-08-16 11:48:00,
2013-08-16 06:49:00,63.4,61.0,30.05,NE,39,2.0,3.0,92,0.00,,---,0.00,VWS V13.01,2013-08-16 11:49:00,
2013-08-16 06:50:00,63.4,60.7,30.04,NE,39,1.0,4.0,91,0.00,,---,0.00,VWS V13.01,2013-08-16 11:50:00,
2013-08-16 06:51:00,63.5,60.8,30.04,NE,39,2.0,4.0,91,0.00,,---,0.00,VWS V13.01,2013-08-16 11:51:00,
2013-08-16 06:52:00,63.5,60.8,30.04,NE,39,2.0,5.0,91,0.00,,---,0.00,VWS V13.01,2013-08-16 11:52:00,
2013-08-16 06:53:00,63.6,60.9,30.04,NE,38,2.0,5.0,91,0.00,,---,0.00,VWS V13.01,2013-08-16 11:53:00,
2013-08-16 06:54:00,63.6,60.9,30.04,NE,38,3.0,5.0,91,0.00,,---,0.00,VWS V13.01,2013-08-16 11:54:00,
2013-08-16 06:55:00,63.6,60.9,30.05,NE,38,3.0,5.0,91,0.00,,---,0.00,VWS V13.01,2013-08-16 11:55:00,
2013-08-16 06:56:00,63.7,61.0,30.04,NE,38,0.0,5.0,91,0.00,,---,0.00,VWS V13.01,2013-08-16 11:56:00,
2013-08-16 06:57:00,63.8,61.1,30.04,NE,39,0.0,5.0,91,0.00,,---,0.00,VWS V13.01,2013-08-16 11:57:00,
2013-08-16 06:58:00,63.9,61.2,30.04,NE,39,0.0,5.0,91,0.00,,---,0.00,VWS V13.01,2013-08-16 11:58:00,
2013-08-16 06:59:00,64.0,61.3,30.04,NE,38,0.0,5.0,91,0.00,,---,0.00,VWS V13.01,2013-08-16 11:59:00,
2013-08-16 07:00:00,64.0,61.3,30.04,NE,39,0.0,5.0,91,0.00,,---,0.00,VWS V13.01,2013-08-16 12:00:00,
2013-08-16 07:01:00,64.1,61.4,30.05,NE,39,0.0,0.0,91,0.00,,---,0.00,VWS V13.01,2013-08-16 12:01:00,
2013-08-16 07:02:00,64.3,61.6,30.05,NE,38,0.0,0.0,91,0.00,,---,0.00,VWS V13.01,2013-08-16 12:02:00,
2013-08-16 07:03:00,64.3,61.6,30.05,NE,39,2.0,4.0,91,0.00,,---,0.00,VWS V13.01,2013-08-16 12:03:00,
2013-08-16 07:04:00,64.4,61.4,30.05,NE,39,0.0,4.0,90,0.00,,---,0.00,VWS V13.01,2013-08-16 12:04:00,
2013-08-16 07:05:00,64.4,61.4,30.05,NE,39,0.0,4.0,90,0.00,,---,0.00,VWS V13.01,2013-08-16 12:05:00,
2013-08-16 07:06:00,64.5,61.5,30.05,NE,38,2.0,4.0,90,0.00,,---,0.00,VWS V13.01,2013-08-16 12:06:00,
2013-08-16 07:07:00,64.7,61.7,30.05,NE,39,0.0,4.0,90,0.00,,---,0.00,VWS V13.01,2013-08-16 12:07:00,
2013-08-16 07:08:00,64.7,61.7,30.05,NE,39,0.0,4.0,90,0.00,,---,0.00,VWS V13.01,2013-08-16 12:08:00,
2013-08-16 07:09:00,64.8,61.8,30.05,NE,38,0.0,4.0,90,0.00,,---,0.00,VWS V13.01,2013-08-16 12:09:00,
2013-08-16 07:10:00,64.9,61.9,30.05,NE,38,0.0,4.0,90,0.00,,---,0.00,VWS V13.01,2013-08-16 12:10:00,
2013-08-16 07:11:00,64.9,61.6,30.05,NE,39,5.0,5.0,89,0.00,,---,0.00,VWS V13.01,2013-08-16 12:11:00,
2013-08-16 07:12:00,65.0,61.7,30.05,NE,39,2.0,5.0,89,0.00,,---,0.00,VWS V13.01,2013-08-16 12:12:00,
2013-08-16 07:13:00,65.0,61.4,30.05,NE,38,4.0,5.0,88,0.00,,---,0.00,VWS V13.01,2013-08-16 12:13:00,
2013-08-16 07:14:00,65.1,61.5,30.05,NE,38,2.0,5.0,88,0.00,,---,0.00,VWS V13.01,2013-08-16 12:14:00,
2013-08-16 07:15:00,65.1,61.5,30.05,NE,39,0.0,5.0,88,0.00,,---,0.00,VWS V13.01,2013-08-16 12:15:00,
2013-08-16 07:22:00,65.4,61.8,30.05,NE,39,0.0,0.0,88,0.00,,---,0.00,VWS V13.01,2013-08-16 12:22:00,
2013-08-16 07:23:00,65.5,61.9,30.05,NE,39,0.0,0.0,88,0.00,,---,0.00,VWS V13.01,2013-08-16 12:23:00,
2013-08-16 07:24:00,65.6,62.0,30.05,NE,39,0.0,0.0,88,0.00,,---,0.00,VWS V13.01,2013-08-16 12:24:00,
2013-08-16 07:25:00,65.6,62.0,30.05,NE,39,0.0,1.0,88,0.00,,---,0.00,VWS V13.01,2013-08-16 12:25:00,
2013-08-16 07:26:00,65.6,61.6,30.05,NE,39,0.0,1.0,87,0.00,,---,0.00,VWS V13.01,2013-08-16 12:26:00,
2013-08-16 07:27:00,65.6,61.6,30.05,NE,39,2.0,3.0,87,0.00,,---,0.00,VWS V13.01,2013-08-16 12:27:00,
2013-08-16 07:28:00,65.6,61.6,30.05,NE,38,2.0,3.0,87,0.00,,---,0.00,VWS V13.01,2013-08-16 12:28:00,
2013-08-16 07:29:00,65.6,61.6,30.05,NE,39,2.0,3.0,87,0.00,,---,0.00,VWS V13.01,2013-08-16 12:29:00,
2013-08-16 07:30:00,65.6,61.6,30.05,NE,38,2.0,4.0,87,0.00,,---,0.00,VWS V13.01,2013-08-16 12:30:00,
2013-08-16 07:31:00,65.6,61.6,30.05,NE,39,2.0,3.0,87,0.00,,---,0.00,VWS V13.01,2013-08-16 12:31:00,
2013-08-16 07:32:00,65.6,61.6,30.05,NE,39,0.0,4.0,87,0.00,,---,0.00,VWS V13.01,2013-08-16 12:32:00,
2013-08-16 07:33:00,65.6,61.6,30.05,NE,39,1.0,4.0,87,0.00,,---,0.00,VWS V13.01,2013-08-16 12:33:00,
2013-08-16 07:34:00,65.6,61.6,30.05,NE,39,4.0,4.0,87,0.00,,---,0.00,VWS V13.01,2013-08-16 12:34:00,
2013-08-16 07:35:00,65.5,61.5,30.05,NE,39,5.0,6.0,87,0.00,,---,0.00,VWS V13.01,2013-08-16 12:35:00,
2013-08-16 07:36:00,65.5,61.2,30.05,NE,38,4.0,6.0,86,0.00,,---,0.00,VWS V13.01,2013-08-16 12:36:00,
2013-08-16 07:37:00,65.4,61.4,30.05,NE,39,3.0,6.0,87,0.00,,---,0.00,VWS V13.01,2013-08-16 12:37:00,
2013-08-16 07:38:00,65.4,61.4,30.05,NE,39,3.0,6.0,87,0.00,,---,0.00,VWS V13.01,2013-08-16 12:38:00,
2013-08-16 07:39:00,65.4,61.4,30.05,NE,39,0.0,6.0,87,0.00,,---,0.00,VWS V13.01,2013-08-16 12:39:00,
2013-08-16 07:40:00,65.4,61.8,30.05,NE,39,0.0,6.0,88,0.00,,---,0.00,VWS V13.01,2013-08-16 12:40:00,
2013-08-16 07:41:00,65.4,61.4,30.05,NE,39,3.0,6.0,87,0.00,,---,0.00,VWS V13.01,2013-08-16 12:41:00,
2013-08-16 07:42:00,65.4,61.4,30.05,NE,38,3.0,6.0,87,0.00,,---,0.00,VWS V13.01,2013-08-16 12:42:00,
2013-08-16 07:43:00,65.4,61.4,30.05,NE,38,0.0,6.0,87,0.00,,---,0.00,VWS V13.01,2013-08-16 12:43:00,
2013-08-16 07:44:00,65.4,61.4,30.05,NE,39,4.0,6.0,87,0.00,,---,0.00,VWS V13.01,2013-08-16 12:44:00,
2013-08-16 07:45:00,65.4,61.4,30.05,NE,39,2.0,6.0,87,0.00,,---,0.00,VWS V13.01,2013-08-16 12:45:00,
2013-08-16 07:46:00,65.4,61.8,30.05,NE,39,0.0,6.0,88,0.00,,---,0.00,VWS V13.01,2013-08-16 12:46:00,
2013-08-16 07:47:00,65.5,61.9,30.05,NE,39,0.0,6.0,88,0.00,,---,0.00,VWS V13.01,2013-08-16 12:47:00,
2013-08-16 07:48:00,65.5,61.9,30.05,NE,38,0.0,6.0,88,0.00,,---,0.00,VWS V13.01,2013-08-16 12:48:00,
2013-08-16 07:49:00,65.5,62.2,30.05,NE,38,0.0,6.0,89,0.00,,---,0.00,VWS V13.01,2013-08-16 12:49:00,
2013-08-16 07:50:00,65.6,62.0,30.05,NE,39,4.0,6.0,88,0.00,,---,0.00,VWS V13.01,2013-08-16 12:50:00,
2013-08-16 07:51:00,65.6,62.0,30.05,NE,39,0.0,6.0,88,0.00,,---,0.00,VWS V13.01,2013-08-16 12:51:00,
2013-08-16 07:52:00,65.6,62.0,30.05,NE,39,1.0,6.0,88,0.00,,---,0.00,VWS V13.01,2013-08-16 12:52:00,
2013-08-16 07:53:00,65.7,62.0,30.05,NE,39,2.0,6.0,88,0.00,,---,0.00,VWS V13.01,2013-08-16 12:53:00,
2013-08-16 07:54:00,65.9,62.6,30.05,NE,38,4.0,6.0,89,0.00,,---,0.00,VWS V13.01,2013-08-16 12:54:00,
2013-08-16 07:55:00,66.0,62.7,30.05,NE,38,3.0,6.0,89,0.00,,---,0.00,VWS V13.01,2013-08-16 12:55:00,
2013-08-16 07:56:00,66.1,62.5,30.05,NE,39,2.0,6.0,88,0.00,,---,0.00,VWS V13.01,2013-08-16 12:56:00,
2013-08-16 07:57:00,66.1,62.5,30.05,NE,39,3.0,6.0,88,0.00,,---,0.00,VWS V13.01,2013-08-16 12:57:00,
2013-08-16 07:58:00,66.2,62.2,30.05,NE,39,2.0,6.0,87,0.00,,---,0.00,VWS V13.01,2013-08-16 12:58:00,
2013-08-16 07:59:00,66.3,62.6,30.05,NE,38,0.0,6.0,88,0.00,,---,0.00,VWS V13.01,2013-08-16 12:59:00,
2013-08-16 08:00:00,66.5,62.8,30.05,NE,39,2.0,6.0,88,0.00,,---,0.00,VWS V13.01,2013-08-16 13:00:00,
2013-08-16 08:01:00,66.6,62.9,30.05,NE,38,1.0,2.0,88,0.00,,---,0.00,VWS V13.01,2013-08-16 13:01:00,
2013-08-16 08:02:00,66.7,63.0,30.05,NE,38,0.0,2.0,88,0.00,,---,0.00,VWS V13.01,2013-08-16 13:02:00,
2013-08-16 08:03:00,66.8,63.5,30.05,NE,38,0.0,2.0,89,0.00,,---,0.00,VWS V13.01,2013-08-16 13:03:00,
2013-08-16 08:04:00,66.9,63.2,30.05,NE,39,0.0,2.0,88,0.00,,---,0.00,VWS V13.01,2013-08-16 13:04:00,
2013-08-16 08:05:00,67.1,63.4,30.05,NE,38,1.0,3.0,88,0.00,,---,0.00,VWS V13.01,2013-08-16 13:05:00,
2013-08-16 08:06:00,67.2,63.2,30.05,NE,39,0.0,3.0,87,0.00,,---,0.00,VWS V13.01,2013-08-16 13:06:00,
2013-08-16 08:07:00,67.4,63.7,30.04,NE,39,3.0,3.0,88,0.00,,---,0.00,VWS V13.01,2013-08-16 13:07:00,
2013-08-16 08:08:00,67.5,63.5,30.04,NE,38,0.0,3.0,87,0.00,,---,0.00,VWS V13.01,2013-08-16 13:08:00,
2013-08-16 08:09:00,67.6,63.6,30.05,NE,39,1.0,3.0,87,0.00,,---,0.00,VWS V13.01,2013-08-16 13:09:00,
2013-08-16 08:10:00,67.6,63.6,30.04,NE,39,1.0,4.0,87,0.00,,---,0.00,VWS V13.01,2013-08-16 13:10:00,
2013-08-16 08:11:00,67.8,63.8,30.04,NE,38,0.0,4.0,87,0.00,,---,0.00,VWS V13.01,2013-08-16 13:11:00,
2013-08-16 08:12:00,67.9,63.9,30.04,NE,39,0.0,4.0,87,0.00,,---,0.00,VWS V13.01,2013-08-16 13:12:00,
2013-08-16 08:13:00,68.0,64.0,30.05,NE,39,0.0,4.0,87,0.00,,---,0.00,VWS V13.01,2013-08-16 13:13:00,
2013-08-16 08:14:00,68.1,64.1,30.05,NE,39,2.0,4.0,87,0.00,,---,0.00,VWS V13.01,2013-08-16 13:14:00,
2013-08-16 08:15:00,68.2,63.9,30.04,NE,39,3.0,5.0,86,0.00,,---,0.00,VWS V13.01,2013-08-16 13:15:00,
2013-08-16 08:16:00,68.2,63.5,30.05,NE,38,6.0,6.0,85,0.00,,---,0.00,VWS V13.01,2013-08-16 13:16:00,
2013-08-16 08:17:00,68.2,63.5,30.04,NE,38,3.0,6.0,85,0.00,,---,0.00,VWS V13.01,2013-08-16 13:17:00,
2013-08-16 08:18:00,68.2,63.2,30.04,NE,39,4.0,6.0,84,0.00,,---,0.00,VWS V13.01,2013-08-16 13:18:00,
2013-08-16 08:19:00,68.1,63.1,30.05,NE,39,3.0,6.0,84,0.00,,---,0.00,VWS V13.01,2013-08-16 13:19:00,
2013-08-16 08:20:00,68.1,63.4,30.04,NE,39,6.0,6.0,85,0.00,,---,0.00,VWS V13.01,2013-08-16 13:20:00,
2013-08-16 08:21:00,68.0,63.3,30.04,NE,39,0.0,6.0,85,0.00,,---,0.00,VWS V13.01,2013-08-16 13:21:00,
2013-08-16 08:22:00,68.0,63.3,30.04,NE,38,0.0,6.0,85,0.00,,---,0.00,VWS V13.01,2013-08-16 13:22:00,
2013-08-16 08:23:00,68.0,63.3,30.05,NE,38,2.0,6.0,85,0.00,,---,0.00,VWS V13.01,2013-08-16 13:23:00,
2013-08-16 08:24:00,68.0,63.7,30.04,NE,38,4.0,6.0,86,0.00,,---,0.00,VWS V13.01,2013-08-16 13:24:00,
2013-08-16 08:25:00,68.0,63.7,30.04,NE,39,2.0,6.0,86,0.00,,---,0.00,VWS V13.01,2013-08-16 13:25:00,
2013-08-16 08:26:00,68.0,64.0,30.05,NE,39,3.0,6.0,87,0.00,,---,0.00,VWS V13.01,2013-08-16 13:26:00,
2013-08-16 08:27:00,68.0,63.7,30.05,NE,39,3.0,6.0,86,0.00,,---,0.00,VWS V13.01,2013-08-16 13:27:00,
2013-08-16 08:28:00,68.0,63.7,30.05,NE,39,4.0,6.0,86,0.00,,---,0.00,VWS V13.01,2013-08-16 13:28:00,
2013-08-16 08:29:00,68.0,63.7,30.04,NE,38,3.0,6.0,86,0.00,,---,0.00,VWS V13.01,2013-08-16 13:29:00,
2013-08-16 08:30:00,68.0,63.7,30.04,NE,38,4.0,6.0,86,0.00,,---,0.00,VWS V13.01,2013-08-16 13:30:00,
2013-08-16 08:31:00,68.0,63.3,30.04,NE,39,2.0,5.0,85,0.00,,---,0.00,VWS V13.01,2013-08-16 13:31:00,
2013-08-16 08:32:00,68.0,63.7,30.04,NE,39,3.0,5.0,86,0.00,,---,0.00,VWS V13.01,2013-08-16 13:32:00,
2013-08-16 08:33:00,68.0,63.7,30.04,NE,39,1.0,5.0,86,0.00,,---,0.00,VWS V13.01,2013-08-16 13:33:00,
2013-08-16 08:34:00,68.0,63.7,30.04,NE,39,2.0,5.0,86,0.00,,---,0.00,VWS V13.01,2013-08-16 13:34:00,
2013-08-16 08:35:00,68.1,64.1,30.04,NE,39,2.0,5.0,87,0.00,,---,0.00,VWS V13.01,2013-08-16 13:35:00,
2013-08-16 08:36:00,68.1,64.1,30.04,NE,38,2.0,6.0,87,0.00,,---,0.00,VWS V13.01,2013-08-16 13:36:00,
2013-08-16 08:37:00,68.2,63.9,30.04,NE,38,5.0,6.0,86,0.00,,---,0.00,VWS V13.01,2013-08-16 13:37:00,
2013-08-16 08:38:00,68.3,64.0,30.04,NE,39,2.0,6.0,86,0.00,,---,0.00,VWS V13.01,2013-08-16 13:38:00,
2013-08-16 08:39:00,68.3,64.3,30.04,NE,39,2.0,6.0,87,0.00,,---,0.00,VWS V13.01,2013-08-16 13:39:00,
2013-08-16 08:40:00,68.5,64.5,30.04,NE,39,0.0,6.0,87,0.00,,---,0.00,VWS V13.01,2013-08-16 13:40:00,
2013-08-16 08:41:00,68.6,64.6,30.04,NE,39,2.0,6.0,87,0.00,,---,0.00,VWS V13.01,2013-08-16 13:41:00,
2013-08-16 08:42:00,68.7,64.7,30.04,NE,39,5.0,6.0,87,0.00,,---,0.00,VWS V13.01,2013-08-16 13:42:00,
2013-08-16 08:43:00,68.7,64.3,30.04,NE,38,2.0,6.0,86,0.00,,---,0.00,VWS V13.01,2013-08-16 13:43:00,
2013-08-16 08:44:00,68.8,64.4,30.04,NE,38,3.0,6.0,86,0.00,,---,0.00,VWS V13.01,2013-08-16 13:44:00,
2013-08-16 08:45:00,68.8,64.4,30.04,NE,39,0.0,6.0,86,0.00,,---,0.00,VWS V13.01,2013-08-16 13:45:00,
2013-08-16 08:46:00,68.9,64.9,30.04,NE,38,3.0,6.0,87,0.00,,---,0.00,VWS V13.01,2013-08-16 13:46:00,
2013-08-16 08:47:00,69.0,65.0,30.04,NE,39,5.0,6.0,87,0.00,,---,0.00,VWS V13.01,2013-08-16 13:47:00,
2013-08-16 08:48:00,69.1,64.7,30.04,NE,39,5.0,6.0,86,0.00,,---,0.00,VWS V13.01,2013-08-16 13:48:00,
2013-08-16 08:49:00,69.1,64.4,30.05,NE,39,2.0,6.0,85,0.00,,---,0.00,VWS V13.01,2013-08-16 13:49:00,
2013-08-16 08:50:00,69.2,64.5,30.05,NE,38,1.0,6.0,85,0.00,,---,0.00,VWS V13.01,2013-08-16 13:50:00,
2013-08-16 08:51:00,69.3,64.9,30.05,NE,39,2.0,6.0,86,0.00,,---,0.00,VWS V13.01,2013-08-16 13:51:00,
2013-08-16 08:52:00,69.3,64.9,30.05,NE,38,5.0,6.0,86,0.00,,---,0.00,VWS V13.01,2013-08-16 13:52:00,
2013-08-16 08:53:00,69.4,65.0,30.05,NE,39,0.0,6.0,86,0.00,,---,0.00,VWS V13.01,2013-08-16 13:53:00,
2013-08-16 08:54:00,69.4,65.0,30.05,NE,39,0.0,6.0,86,0.00,,---,0.00,VWS V13.01,2013-08-16 13:54:00,
2013-08-16 08:55:00,69.5,65.1,30.05,NE,39,0.0,6.0,86,0.00,,---,0.00,VWS V13.01,2013-08-16 13:55:00,
2013-08-16 08:56:00,69.6,65.6,30.05,NE,38,4.0,6.0,87,0.00,,---,0.00,VWS V13.01,2013-08-16 13:56:00,
2013-08-16 08:57:00,69.7,65.3,30.05,NE,38,0.0,6.0,86,0.00,,---,0.00,VWS V13.01,2013-08-16 13:57:00,
2013-08-16 08:58:00,69.8,65.4,30.05,NE,38,2.0,6.0,86,0.00,,---,0.00,VWS V13.01,2013-08-16 13:58:00,
2013-08-16 08:59:00,69.9,65.5,30.05,NE,38,4.0,6.0,86,0.00,,---,0.00,VWS V13.01,2013-08-16 13:59:00,
2013-08-16 09:00:00,69.9,65.2,30.05,NE,39,0.0,6.0,85,0.00,,---,0.00,VWS V13.01,2013-08-16 14:00:00,
2013-08-16 09:22:00,70.4,65.3,30.06,NE,39,0.0,1.0,84,0.00,,---,0.00,VWS V13.01,2013-08-16 14:22:00,
2013-08-16 09:23:00,70.5,65.8,30.06,NE,39,0.0,1.0,85,0.00,,---,0.00,VWS V13.01,2013-08-16 14:23:00,
2013-08-16 09:24:00,70.5,65.4,30.06,NE,39,1.0,1.0,84,0.00,,---,0.00,VWS V13.01,2013-08-16 14:24:00,
2013-08-16 09:25:00,70.5,65.4,30.06,NE,39,0.0,4.0,84,0.00,,---,0.00,VWS V13.01,2013-08-16 14:25:00,
2013-08-16 09:26:00,70.5,65.4,30.06,NE,39,0.0,4.0,84,0.00,,---,0.00,VWS V13.01,2013-08-16 14:26:00,
2013-08-16 09:27:00,70.5,65.8,30.06,NE,38,0.0,4.0,85,0.00,,---,0.00,VWS V13.01,2013-08-16 14:27:00,
2013-08-16 09:28:00,70.5,65.4,30.06,NE,38,0.0,4.0,84,0.00,,---,0.00,VWS V13.01,2013-08-16 14:28:00,
2013-08-16 09:29:00,70.4,65.3,30.06,NE,39,0.0,4.0,84,0.00,,---,0.00,VWS V13.01,2013-08-16 14:29:00,
2013-08-16 09:30:00,70.5,65.8,30.06,NE,39,0.0,4.0,85,0.00,,---,0.00,VWS V13.01,2013-08-16 14:30:00,
2013-08-16 09:31:00,70.4,65.7,30.06,NE,39,2.0,3.0,85,0.00,,---,0.00,VWS V13.01,2013-08-16 14:31:00,
2013-08-16 09:32:00,70.4,65.3,30.06,NE,38,2.0,3.0,84,0.00,,---,0.00,VWS V13.01,2013-08-16 14:32:00,
2013-08-16 09:33:00,70.3,65.2,30.06,NE,38,2.0,3.0,84,0.00,,---,0.00,VWS V13.01,2013-08-16 14:33:00,
2013-08-16 09:34:00,70.3,65.2,30.06,NE,38,0.0,3.0,84,0.00,,---,0.00,VWS V13.01,2013-08-16 14:34:00,
2013-08-16 09:35:00,70.3,65.2,30.06,NE,39,0.0,3.0,84,0.00,,---,0.00,VWS V13.01,2013-08-16 14:35:00,
2013-08-16 09:36:00,70.3,65.6,30.06,NE,39,4.0,4.0,85,0.00,,---,0.00,VWS V13.01,2013-08-16 14:36:00,
2013-08-16 09:37:00,70.3,65.2,30.06,NE,39,2.0,4.0,84,0.00,,---,0.00,VWS V13.01,2013-08-16 14:37:00,
2013-08-16 09:38:00,70.3,65.2,30.06,NE,39,2.0,4.0,84,0.00,,---,0.00,VWS V13.01,2013-08-16 14:38:00,
2013-08-16 09:39:00,70.3,65.2,30.06,NE,38,3.0,4.0,84,0.00,,---,0.00,VWS V13.01,2013-08-16 14:39:00,
2013-08-16 09:40:00,70.2,65.1,30.06,NE,38,3.0,4.0,84,0.00,,---,0.00,VWS V13.01,2013-08-16 14:40:00,
2013-08-16 09:41:00,70.2,65.1,30.06,NE,39,0.0,4.0,84,0.00,,---,0.00,VWS V13.01,2013-08-16 14:41:00,
2013-08-16 09:42:00,70.2,65.5,30.06,NE,39,0.0,4.0,85,0.00,,---,0.00,VWS V13.01,2013-08-16 14:42:00,
2013-08-16 09:43:00,70.2,65.5,30.06,NE,39,0.0,4.0,85,0.00,,---,0.00,VWS V13.01,2013-08-16 14:43:00,
2013-08-16 09:44:00,70.2,65.5,30.07,NE,39,0.0,4.0,85,0.00,,---,0.00,VWS V13.01,2013-08-16 14:44:00,
2013-08-16 09:45:00,70.2,65.5,30.06,NE,39,0.0,4.0,85,0.00,,---,0.00,VWS V13.01,2013-08-16 14:45:00,
2013-08-16 09:46:00,70.2,65.5,30.06,NE,38,0.0,4.0,85,0.00,,---,0.00,VWS V13.01,2013-08-16 14:46:00,
2013-08-16 09:47:00,70.3,65.6,30.06,NE,38,0.0,4.0,85,0.00,,---,0.00,VWS V13.01,2013-08-16 14:47:00,
2013-08-16 09:48:00,70.3,65.6,30.06,NE,39,0.0,4.0,85,0.00,,---,0.00,VWS V13.01,2013-08-16 14:48:00,
2013-08-16 09:49:00,70.4,65.7,30.06,NE,39,0.0,4.0,85,0.00,,---,0.00,VWS V13.01,2013-08-16 14:49:00,
2013-08-16 09:50:00,70.4,65.7,30.06,NE,39,0.0,4.0,85,0.00,,---,0.00,VWS V13.01,2013-08-16 14:50:00,
2013-08-16 09:51:00,70.4,65.7,30.06,NE,39,0.0,4.0,85,0.00,,---,0.00,VWS V13.01,2013-08-16 14:51:00,
2013-08-16 09:52:00,70.5,65.8,30.06,NE,38,0.0,4.0,85,0.00,,---,0.00,VWS V13.01,2013-08-16 14:52:00,
2013-08-16 09:53:00,70.5,65.4,30.06,NE,38,0.0,4.0,84,0.00,,---,0.00,VWS V13.01,2013-08-16 14:53:00,
2013-08-16 09:54:00,70.5,65.4,30.06,NE,39,0.0,4.0,84,0.00,,---,0.00,VWS V13.01,2013-08-16 14:54:00,
2013-08-16 09:55:00,70.5,65.4,30.06,NE,39,0.0,4.0,84,0.00,,---,0.00,VWS V13.01,2013-08-16 14:55:00,
2013-08-16 09:56:00,70.5,65.4,30.06,NE,39,0.0,4.0,84,0.00,,---,0.00,VWS V13.01,2013-08-16 14:56:00,
2013-08-16 09:57:00,70.6,65.5,30.06,NE,38,0.0,4.0,84,0.00,,---,0.00,VWS V13.01,2013-08-16 14:57:00,
2013-08-16 09:58:00,70.6,65.5,30.06,NE,39,0.0,4.0,84,0.00,,---,0.00,VWS V13.01,2013-08-16 14:58:00,
2013-08-16 09:59:00,70.6,65.5,30.06,NE,38,0.0,4.0,84,0.00,,---,0.00,VWS V13.01,2013-08-16 14:59:00,
2013-08-16 10:00:00,70.6,65.5,30.06,NE,39,0.0,4.0,84,0.00,,---,0.00,VWS V13.01,2013-08-16 15:00:00,
2013-08-16 10:01:00,70.6,65.9,30.06,NE,39,0.0,0.0,85,0.00,,---,0.00,VWS V13.01,2013-08-16 15:01:00,
2013-08-16 10:02:00,70.7,65.6,30.06,NE,38,0.0,0.0,84,0.00,,---,0.00,VWS V13.01,2013-08-16 15:02:00,
2013-08-16 10:03:00,70.7,66.0,30.06,NE,39,0.0,0.0,85,0.00,,---,0.00,VWS V13.01,2013-08-16 15:03:00,
2013-08-16 10:04:00,70.7,66.0,30.06,NE,39,0.0,0.0,85,0.00,,---,0.00,VWS V13.01,2013-08-16 15:04:00,
2013-08-16 10:05:00,70.7,66.0,30.07,NE,39,0.0,0.0,85,0.00,,---,0.00,VWS V13.01,2013-08-16 15:05:00,
2013-08-16 10:06:00,70.8,66.1,30.06,NE,39,0.0,0.0,85,0.00,,---,0.00,VWS V13.01,2013-08-16 15:06:00,
2013-08-16 10:07:00,70.7,65.6,30.07,NE,38,0.0,0.0,84,0.00,,---,0.00,VWS V13.01,2013-08-16 15:07:00,
2013-08-16 10:08:00,70.7,65.6,30.07,NE,39,0.0,0.0,84,0.00,,---,0.00,VWS V13.01,2013-08-16 15:08:00,
2013-08-16 10:09:00,70.8,65.7,30.07,NE,38,0.0,0.0,84,0.00,,---,0.00,VWS V13.01,2013-08-16 15:09:00,
2013-08-16 10:10:00,70.8,65.7,30.07,NE,39,0.0,0.0,84,0.00,,---,0.00,VWS V13.01,2013-08-16 15:10:00,
2013-08-16 10:11:00,70.8,65.7,30.07,NE,39,0.0,0.0,84,0.00,,---,0.00,VWS V13.01,2013-08-16 15:11:00,
2013-08-16 10:12:00,70.8,65.7,30.07,NE,39,0.0,0.0,84,0.00,,---,0.00,VWS V13.01,2013-08-16 15:12:00,
2013-08-16 10:13:00,70.8,65.7,30.07,NE,38,0.0,0.0,84,0.00,,---,0.00,VWS V13.01,2013-08-16 15:13:00,
2013-08-16 10:14:00,70.8,65.7,30.07,NE,39,0.0,0.0,84,0.00,,---,0.00,VWS V13.01,2013-08-16 15:14:00,
2013-08-16 10:15:00,70.9,66.2,30.07,NE,39,0.0,0.0,85,0.00,,---,0.00,VWS V13.01,2013-08-16 15:15:00,
2013-08-16 10:16:00,70.9,66.2,30.07,NE,39,0.0,0.0,85,0.00,,---,0.00,VWS V13.01,2013-08-16 15:16:00,
2013-08-16 10:17:00,70.9,66.2,30.07,NE,39,0.0,0.0,85,0.00,,---,0.00,VWS V13.01,2013-08-16 15:17:00,
2013-08-16 10:18:00,71.0,66.3,30.07,NE,39,0.0,0.0,85,0.00,,---,0.00,VWS V13.01,2013-08-16 15:18:00,
2013-08-16 10:19:00,71.1,66.4,30.07,NE,39,0.0,0.0,85,0.00,,---,0.00,VWS V13.01,2013-08-16 15:19:00,
2013-08-16 10:20:00,71.1,66.4,30.07,NE,38,0.0,1.0,85,0.00,,---,0.00,VWS V13.01,2013-08-16 15:20:00,
2013-08-16 10:21:00,71.2,66.5,30.07,NE,38,1.0,1.0,85,0.00,,---,0.00,VWS V13.01,2013-08-16 15:21:00,
2013-08-16 10:22:00,71.2,66.5,30.07,NE,39,0.0,1.0,85,0.00,,---,0.00,VWS V13.01,2013-08-16 15:22:00,
2013-08-16 10:23:00,71.3,66.6,30.07,NE,39,0.0,1.0,85,0.00,,---,0.00,VWS V13.01,2013-08-16 15:23:00,
2013-08-16 10:24:00,71.3,66.2,30.07,NE,39,0.0,1.0,84,0.00,,---,0.00,VWS V13.01,2013-08-16 15:24:00,
2013-08-16 10:25:00,71.3,66.6,30.07,NE,39,2.0,3.0,85,0.00,,---,0.00,VWS V13.01,2013-08-16 15:25:00,
2013-08-16 10:26:00,71.3,65.9,30.07,NE,39,3.0,3.0,83,0.00,,---,0.00,VWS V13.01,2013-08-16 15:26:00,
2013-08-16 10:27:00,71.3,66.2,30.07,NE,38,0.0,3.0,84,0.00,,---,0.00,VWS V13.01,2013-08-16 15:27:00,
2013-08-16 10:28:00,71.3,66.2,30.07,NE,39,0.0,3.0,84,0.00,,---,0.00,VWS V13.01,2013-08-16 15:28:00,
2013-08-16 10:29:00,71.4,66.3,30.06,NE,39,0.0,3.0,84,0.00,,---,0.00,VWS V13.01,2013-08-16 15:29:00,
2013-08-16 10:30:00,71.5,66.4,30.06,NE,39,0.0,3.0,84,0.00,,---,0.00,VWS V13.01,2013-08-16 15:30:00,
2013-08-16 10:31:00,71.5,66.4,30.06,NE,39,0.0,2.0,84,0.00,,---,0.00,VWS V13.01,2013-08-16 15:31:00,
2013-08-16 10:32:00,71.5,66.4,30.06,NE,39,0.0,2.0,84,0.00,,---,0.00,VWS V13.01,2013-08-16 15:32:00,
2013-08-16 10:33:00,71.5,66.4,30.06,NE,38,3.0,3.0,84,0.00,,---,0.00,VWS V13.01,2013-08-16 15:33:00,
2013-08-16 10:34:00,71.6,66.2,30.06,NE,39,0.0,3.0,83,0.00,,---,0.00,VWS V13.01,2013-08-16 15:34:00,
2013-08-16 10:35:00,71.6,66.5,30.06,NE,38,4.0,5.0,84,0.00,,---,0.00,VWS V13.01,2013-08-16 15:35:00,
2013-08-16 10:36:00,71.6,66.5,30.06,NE,39,3.0,5.0,84,0.00,,---,0.00,VWS V13.01,2013-08-16 15:36:00,
2013-08-16 10:37:00,71.6,66.5,30.06,NE,39,1.0,5.0,84,0.00,,---,0.00,VWS V13.01,2013-08-16 15:37:00,
2013-08-16 10:38:00,71.6,66.5,30.06,NE,39,0.0,5.0,84,0.00,,---,0.00,VWS V13.01,2013-08-16 15:38:00,
2013-08-16 10:39:00,71.6,66.5,30.06,NE,39,0.0,5.0,84,0.00,,---,0.00,VWS V13.01,2013-08-16 15:39:00,
2013-08-16 10:40:00,71.7,66.6,30.06,NE,38,0.0,5.0,84,0.00,,---,0.00,VWS V13.01,2013-08-16 15:40:00,
2013-08-16 10:41:00,71.7,66.9,30.06,NE,38,0.0,5.0,85,0.00,,---,0.00,VWS V13.01,2013-08-16 15:41:00,
2013-08-16 10:42:00,71.8,66.7,30.06,NE,39,0.0,5.0,84,0.00,,---,0.00,VWS V13.01,2013-08-16 15:42:00,
2013-08-16 10:43:00,71.9,67.2,30.06,NE,39,0.0,5.0,85,0.00,,---,0.00,VWS V13.01,2013-08-16 15:43:00,
2013-08-16 10:44:00,71.9,66.5,30.06,NE,39,2.0,5.0,83,0.00,,---,0.00,VWS V13.01,2013-08-16 15:44:00,
2013-08-16 10:45:00,71.9,66.5,30.06,NE,38,2.0,5.0,83,0.00,,---,0.00,VWS V13.01,2013-08-16 15:45:00,
2013-08-16 10:46:00,71.9,66.5,30.06,NE,39,2.0,5.0,83,0.00,,---,0.00,VWS V13.01,2013-08-16 15:46:00,
2013-08-16 10:47:00,71.9,66.5,30.05,NE,38,0.0,5.0,83,0.00,,---,0.00,VWS V13.01,2013-08-16 15:47:00,
2013-08-16 10:48:00,71.9,66.5,30.06,NE,38,0.0,5.0,83,0.00,,---,0.00,VWS V13.01,2013-08-16 15:48:00,
2013-08-16 10:49:00,71.9,66.8,30.06,NE,38,0.0,5.0,84,0.00,,---,0.00,VWS V13.01,2013-08-16 15:49:00,
2013-08-16 10:50:00,72.0,66.9,30.06,NE,39,0.0,5.0,84,0.00,,---,0.00,VWS V13.01,2013-08-16 15:50:00,
2013-08-16 10:51:00,72.0,66.9,30.06,NE,39,0.0,5.0,84,0.00,,---,0.00,VWS V13.01,2013-08-16 15:51:00,
2013-08-16 10:52:00,72.0,66.9,30.06,NE,39,0.0,5.0,84,0.00,,---,0.00,VWS V13.01,2013-08-16 15:52:00,
2013-08-16 10:53:00,72.1,67.0,30.06,NE,39,0.0,5.0,84,0.00,,---,0.00,VWS V13.01,2013-08-16 15:53:00,
2013-08-16 10:54:00,72.1,66.7,30.06,NE,38,0.0,5.0,83,0.00,,---,0.00,VWS V13.01,2013-08-16 15:54:00,
2013-08-16 10:55:00,72.1,66.7,30.06,NE,38,0.0,5.0,83,0.00,,---,0.00,VWS V13.01,2013-08-16 15:55:00,
2013-08-16 10:56:00,72.2,67.1,30.06,NE,38,0.0,5.0,84,0.00,,---,0.00,VWS V13.01,2013-08-16 15:56:00,
2013-08-16 10:57:00,72.3,67.5,30.06,NE,39,1.0,5.0,85,0.00,,---,0.00,VWS V13.01,2013-08-16 15:57:00,
2013-08-16 10:58:00,72.4,67.6,30.06,NE,38,0.0,5.0,85,0.00,,---,0.00,VWS V13.01,2013-08-16 15:58:00,
2013-08-16 10:59:00,72.4,67.3,30.06,NE,39,3.0,5.0,84,0.00,,---,0.00,VWS V13.01,2013-08-16 15:59:00,
2013-08-16 11:00:00,72.4,66.9,30.06,NE,38,3.0,5.0,83,0.00,,---,0.00,VWS V13.01,2013-08-16 16:00:00,
2013-08-16 11:01:00,72.4,66.6,30.06,NE,38,0.0,4.0,82,0.00,,---,0.00,VWS V13.01,2013-08-16 16:01:00,
2013-08-16 11:02:00,72.3,66.5,30.06,NE,38,0.0,4.0,82,0.00,,---,0.00,VWS V13.01,2013-08-16 16:02:00,
2013-08-16 11:03:00,72.3,66.8,30.06,NE,39,0.0,4.0,83,0.00,,---,0.00,VWS V13.01,2013-08-16 16:03:00,
2013-08-16 11:04:00,72.3,66.5,30.06,NE,39,0.0,4.0,82,0.00,,---,0.00,VWS V13.01,2013-08-16 16:04:00,
2013-08-16 11:05:00,72.3,66.8,30.06,NE,38,0.0,4.0,83,0.00,,---,0.00,VWS V13.01,2013-08-16 16:05:00,
2013-08-16 11:06:00,72.3,66.8,30.06,NE,39,0.0,4.0,83,0.00,,---,0.00,VWS V13.01,2013-08-16 16:06:00,
2013-08-16 11:07:00,72.3,66.8,30.06,NE,38,2.0,5.0,83,0.00,,---,0.00,VWS V13.01,2013-08-16 16:07:00,
2013-08-16 11:08:00,72.4,67.3,30.06,NE,38,3.0,5.0,84,0.00,,---,0.00,VWS V13.01,2013-08-16 16:08:00,
2013-08-16 11:09:00,72.5,67.4,30.06,NE,39,3.0,5.0,84,0.00,,---,0.00,VWS V13.01,2013-08-16 16:09:00,
2013-08-16 11:10:00,72.5,67.4,30.06,NE,39,4.0,5.0,84,0.00,,---,0.00,VWS V13.01,2013-08-16 16:10:00,
2013-08-16 11:11:00,72.5,67.1,30.06,NE,39,0.0,5.0,83,0.00,,---,0.00,VWS V13.01,2013-08-16 16:11:00,
2013-08-16 11:12:00,72.5,67.1,30.06,NE,39,0.0,5.0,83,0.00,,---,0.00,VWS V13.01,2013-08-16 16:12:00,
2013-08-16 11:13:00,72.5,67.4,30.06,NE,39,0.0,5.0,84,0.00,,---,0.00,VWS V13.01,2013-08-16 16:13:00,
2013-08-16 11:14:00,72.6,67.8,30.06,NE,38,4.0,5.0,85,0.00,,---,0.00,VWS V13.01,2013-08-16 16:14:00,
2013-08-16 11:15:00,72.6,67.5,30.06,NE,38,0.0,5.0,84,0.00,,---,0.00,VWS V13.01,2013-08-16 16:15:00,
2013-08-16 11:16:00,72.6,67.5,30.06,NE,39,2.0,5.0,84,0.00,,---,0.00,VWS V13.01,2013-08-16 16:16:00,
2013-08-16 11:17:00,72.7,67.9,30.06,NE,39,0.0,5.0,85,0.00,,---,0.00,VWS V13.01,2013-08-16 16:17:00,
2013-08-16 11:18:00,72.8,68.0,30.06,NE,39,2.0,5.0,85,0.00,,---,0.00,VWS V13.01,2013-08-16 16:18:00,
2013-08-16 11:19:00,72.9,68.1,30.06,NE,39,0.0,5.0,85,0.00,,---,0.00,VWS V13.01,2013-08-16 16:19:00,
2013-08-16 11:20:00,73.0,67.9,30.06,NE,39,0.0,5.0,84,0.00,,---,0.00,VWS V13.01,2013-08-16 16:20:00,
2013-08-16 11:21:00,73.0,67.5,30.06,NE,38,0.0,5.0,83,0.00,,---,0.00,VWS V13.01,2013-08-16 16:21:00,
2013-08-16 11:22:00,73.1,68.0,30.06,NE,39,4.0,5.0,84,0.00,,---,0.00,VWS V13.01,2013-08-16 16:22:00,
2013-08-16 11:23:00,73.1,67.6,30.06,NE,39,0.0,5.0,83,0.00,,---,0.00,VWS V13.01,2013-08-16 16:23:00,
2013-08-16 11:24:00,73.1,67.6,30.06,NE,39,0.0,5.0,83,0.00,,---,0.00,VWS V13.01,2013-08-16 16:24:00,
2013-08-16 11:25:00,73.1,67.6,30.06,NE,39,5.0,5.0,83,0.00,,---,0.00,VWS V13.01,2013-08-16 16:25:00,
2013-08-16 11:26:00,73.1,67.3,30.06,NE,39,0.0,5.0,82,0.00,,---,0.00,VWS V13.01,2013-08-16 16:26:00,
2013-08-16 11:27:00,73.1,67.3,30.06,NE,39,0.0,5.0,82,0.00,,---,0.00,VWS V13.01,2013-08-16 16:27:00,
2013-08-16 11:28:00,73.1,67.6,30.06,NE,38,0.0,5.0,83,0.00,,---,0.00,VWS V13.01,2013-08-16 16:28:00,
2013-08-16 11:29:00,73.1,67.6,30.06,NE,38,0.0,5.0,83,0.00,,---,0.00,VWS V13.01,2013-08-16 16:29:00,
2013-08-16 11:30:00,73.1,68.0,30.06,NE,38,0.0,5.0,84,0.00,,---,0.00,VWS V13.01,2013-08-16 16:30:00,
2013-08-16 11:31:00,73.1,68.3,30.06,NE,39,3.0,4.0,85,0.00,,---,0.00,VWS V13.01,2013-08-16 16:31:00,
2013-08-16 11:32:00,73.3,68.2,30.06,NE,39,0.0,4.0,84,0.00,,---,0.00,VWS V13.01,2013-08-16 16:32:00,
2013-08-16 11:33:00,73.3,68.2,30.06,NE,39,1.0,4.0,84,0.00,,---,0.00,VWS V13.01,2013-08-16 16:33:00,
2013-08-16 11:34:00,73.5,68.4,30.06,NE,38,0.0,4.0,84,0.00,,---,0.00,VWS V13.01,2013-08-16 16:34:00,
2013-08-16 11:35:00,73.5,68.0,30.06,NE,39,5.0,6.0,83,0.00,,---,0.00,VWS V13.01,2013-08-16 16:35:00,
2013-08-16 11:36:00,73.5,67.3,30.06,NE,38,0.0,6.0,81,0.00,,---,0.00,VWS V13.01,2013-08-16 16:36:00,
2013-08-16 11:37:00,73.6,67.8,30.06,NE,38,3.0,6.0,82,0.00,,---,0.00,VWS V13.01,2013-08-16 16:37:00,
2013-08-16 11:38:00,73.7,68.6,30.06,NE,39,4.0,6.0,84,0.00,,---,0.00,VWS V13.01,2013-08-16 16:38:00,
2013-08-16 11:39:00,73.7,68.2,30.06,NE,39,2.0,6.0,83,0.00,,---,0.00,VWS V13.01,2013-08-16 16:39:00,
2013-08-16 11:40:00,73.8,68.0,30.06,NE,39,0.0,6.0,82,0.00,,---,0.00,VWS V13.01,2013-08-16 16:40:00,
2013-08-16 11:41:00,73.8,68.0,30.06,NE,38,3.0,6.0,82,0.00,,---,0.00,VWS V13.01,2013-08-16 16:41:00,
2013-08-16 11:42:00,73.8,68.3,30.06,NE,38,0.0,6.0,83,0.00,,---,0.00,VWS V13.01,2013-08-16 16:42:00,
2013-08-16 11:43:00,74.0,68.5,30.06,NE,38,0.0,6.0,83,0.00,,---,0.00,VWS V13.01,2013-08-16 16:43:00,
2013-08-16 11:44:00,74.1,69.0,30.06,NE,39,5.0,6.0,84,0.00,,---,0.00,VWS V13.01,2013-08-16 16:44:00,
2013-08-16 11:45:00,74.1,68.3,30.06,NE,39,3.0,6.0,82,0.00,,---,0.00,VWS V13.01,2013-08-16 16:45:00,
2013-08-16 11:46:00,74.0,67.8,30.06,NE,39,0.0,6.0,81,0.00,,---,0.00,VWS V13.01,2013-08-16 16:46:00,
2013-08-16 11:47:00,74.0,67.4,30.06,NE,39,0.0,6.0,80,0.00,,---,0.00,VWS V13.01,2013-08-16 16:47:00,
2013-08-16 11:48:00,74.0,67.8,30.06,NE,38,0.0,6.0,81,0.00,,---,0.00,VWS V13.01,2013-08-16 16:48:00,
2013-08-16 11:49:00,74.1,69.0,30.06,NE,38,0.0,6.0,84,0.00,,---,0.00,VWS V13.01,2013-08-16 16:49:00,
2013-08-16 11:50:00,74.2,69.1,30.05,NE,39,2.0,6.0,84,0.00,,---,0.00,VWS V13.01,2013-08-16 16:50:00,
2013-08-16 11:51:00,74.2,68.4,30.06,NE,39,4.0,6.0,82,0.00,,---,0.00,VWS V13.01,2013-08-16 16:51:00,
2013-08-16 11:52:00,74.2,68.4,30.06,NE,39,2.0,6.0,82,0.00,,---,0.00,VWS V13.01,2013-08-16 16:52:00,
2013-08-16 11:53:00,74.2,68.4,30.05,NE,39,2.0,6.0,82,0.00,,---,0.00,VWS V13.01,2013-08-16 16:53:00,
2013-08-16 11:54:00,74.2,68.4,30.05,NE,39,0.0,6.0,82,0.00,,---,0.00,VWS V13.01,2013-08-16 16:54:00,
2013-08-16 11:55:00,74.1,67.9,30.06,NE,38,3.0,6.0,81,0.00,,---,0.00,VWS V13.01,2013-08-16 16:55:00,
2013-08-16 11:56:00,74.1,68.3,30.05,NE,38,0.0,6.0,82,0.00,,---,0.00,VWS V13.01,2013-08-16 16:56:00,
2013-08-16 11:57:00,74.0,67.8,30.05,NE,39,3.0,6.0,81,0.00,,---,0.00,VWS V13.01,2013-08-16 16:57:00,
2013-08-16 11:58:00,74.0,67.8,30.06,NE,39,1.0,6.0,81,0.00,,---,0.00,VWS V13.01,2013-08-16 16:58:00,
2013-08-16 11:59:00,73.9,67.7,30.06,NE,39,0.0,6.0,81,0.00,,---,0.00,VWS V13.01,2013-08-16 16:59:00,
2013-08-16 12:00:00,73.9,68.1,30.06,NE,39,0.0,6.0,82,0.00,,---,0.00,VWS V13.01,2013-08-16 17:00:00,
2013-08-16 12:01:00,73.8,68.0,30.06,NE,39,4.0,6.0,82,0.00,,---,0.00,VWS V13.01,2013-08-16 17:01:00,
2013-08-16 12:02:00,73.7,67.5,30.06,NE,38,2.0,6.0,81,0.00,,---,0.00,VWS V13.01,2013-08-16 17:02:00,
2013-08-16 12:03:00,73.6,67.4,30.06,NE,38,3.0,6.0,81,0.00,,---,0.00,VWS V13.01,2013-08-16 17:03:00,
2013-08-16 12:04:00,73.5,67.3,30.06,NE,39,0.0,6.0,81,0.00,,---,0.00,VWS V13.01,2013-08-16 17:04:00,
2013-08-16 12:05:00,73.5,67.7,30.06,NE,39,0.0,6.0,82,0.00,,---,0.00,VWS V13.01,2013-08-16 17:05:00,
2013-08-16 12:06:00,73.4,67.9,30.06,NE,39,0.0,6.0,83,0.00,,---,0.00,VWS V13.01,2013-08-16 17:06:00,
2013-08-16 12:07:00,73.3,67.5,30.06,NE,39,2.0,6.0,82,0.00,,---,0.00,VWS V13.01,2013-08-16 17:07:00,
2013-08-16 12:08:00,73.3,67.5,30.06,NE,39,0.0,6.0,82,0.00,,---,0.00,VWS V13.01,2013-08-16 17:08:00,
2013-08-16 12:09:00,73.2,67.0,30.06,NE,38,0.0,6.0,81,0.00,,---,0.00,VWS V13.01,2013-08-16 17:09:00,
2013-08-16 12:10:00,73.1,67.3,30.06,NE,39,0.0,6.0,82,0.00,,---,0.00,VWS V13.01,2013-08-16 17:10:00,
2013-08-16 12:11:00,73.1,67.3,30.06,NE,38,0.0,6.0,82,0.00,,---,0.00,VWS V13.01,2013-08-16 17:11:00,
2013-08-16 12:12:00,73.0,67.2,30.06,NE,39,0.0,6.0,82,0.00,,---,0.00,VWS V13.01,2013-08-16 17:12:00,
2013-08-16 12:13:00,73.0,67.2,30.06,NE,39,4.0,6.0,82,0.00,,---,0.00,VWS V13.01,2013-08-16 17:13:00,
2013-08-16 12:14:00,72.9,67.1,30.06,NE,39,3.0,6.0,82,0.00,,---,0.00,VWS V13.01,2013-08-16 17:14:00,
2013-08-16 12:15:00,72.9,67.1,30.06,NE,38,4.0,6.0,82,0.00,,---,0.00,VWS V13.01,2013-08-16 17:15:00,
2013-08-16 12:16:00,72.8,67.0,30.06,NE,38,1.0,6.0,82,0.00,,---,0.00,VWS V13.01,2013-08-16 17:16:00,
2013-08-16 12:17:00,72.8,67.3,30.06,NE,38,2.0,6.0,83,0.00,,---,0.00,VWS V13.01,2013-08-16 17:17:00,
2013-08-16 12:18:00,72.8,67.3,30.06,NE,38,3.0,7.0,83,0.00,,---,0.00,VWS V13.01,2013-08-16 17:18:00,
2013-08-16 12:19:00,72.8,67.3,30.06,NE,39,1.0,7.0,83,0.00,,---,0.00,VWS V13.01,2013-08-16 17:19:00,
2013-08-16 12:20:00,72.8,67.0,30.06,NE,39,0.0,7.0,82,0.00,,---,0.00,VWS V13.01,2013-08-16 17:20:00,
2013-08-16 12:21:00,72.8,67.3,30.06,NE,39,0.0,7.0,83,0.00,,---,0.00,VWS V13.01,2013-08-16 17:21:00,
2013-08-16 12:22:00,72.8,67.3,30.06,NE,38,1.0,7.0,83,0.00,,---,0.00,VWS V13.01,2013-08-16 17:22:00,
2013-08-16 12:23:00,72.8,67.3,30.06,NE,38,6.0,7.0,83,0.00,,---,0.00,VWS V13.01,2013-08-16 17:23:00,
2013-08-16 12:24:00,72.8,67.3,30.05,NE,38,0.0,7.0,83,0.00,,---,0.00,VWS V13.01,2013-08-16 17:24:00,
2013-08-16 12:25:00,72.8,67.3,30.05,NE,38,4.0,7.0,83,0.00,,---,0.00,VWS V13.01,2013-08-16 17:25:00,
2013-08-16 12:26:00,72.8,67.0,30.05,NE,39,3.0,7.0,82,0.00,,---,0.00,VWS V13.01,2013-08-16 17:26:00,
2013-08-16 12:27:00,72.8,67.0,30.05,NE,39,3.0,7.0,82,0.00,,---,0.00,VWS V13.01,2013-08-16 17:27:00,
2013-08-16 12:28:00,72.8,67.0,30.06,NE,39,5.0,7.0,82,0.00,,---,0.00,VWS V13.01,2013-08-16 17:28:00,
2013-08-16 12:29:00,72.8,67.0,30.06,NE,38,7.0,7.0,82,0.00,,---,0.00,VWS V13.01,2013-08-16 17:29:00,
2013-08-16 12:30:00,72.7,66.9,30.05,NE,38,5.0,7.0,82,0.00,,---,0.00,VWS V13.01,2013-08-16 17:30:00,
2013-08-16 12:31:00,72.7,66.9,30.06,NE,39,3.0,9.0,82,0.00,,---,0.00,VWS V13.01,2013-08-16 17:31:00,
2013-08-16 12:32:00,72.8,67.3,30.06,NE,39,2.0,9.0,83,0.00,,---,0.00,VWS V13.01,2013-08-16 17:32:00,
2013-08-16 12:33:00,72.8,67.0,30.05,NE,39,4.0,9.0,82,0.00,,---,0.00,VWS V13.01,2013-08-16 17:33:00,
2013-08-16 12:34:00,72.8,67.0,30.05,NE,39,3.0,9.0,82,0.00,,---,0.00,VWS V13.01,2013-08-16 17:34:00,
2013-08-16 12:35:00,72.9,67.8,30.05,NE,38,0.0,9.0,84,0.00,,---,0.00,VWS V13.01,2013-08-16 17:35:00,
2013-08-16 12:36:00,73.0,67.9,30.05,NE,38,0.0,9.0,84,0.00,,---,0.00,VWS V13.01,2013-08-16 17:36:00,
2013-08-16 12:37:00,73.0,67.9,30.05,NE,38,3.0,9.0,84,0.00,,---,0.00,VWS V13.01,2013-08-16 17:37:00,
2013-08-16 12:38:00,73.1,68.0,30.06,NE,39,0.0,9.0,84,0.00,,---,0.00,VWS V13.01,2013-08-16 17:38:00,
2013-08-16 12:39:00,73.2,68.1,30.06,NE,39,0.0,9.0,84,0.00,,---,0.00,VWS V13.01,2013-08-16 17:39:00,
2013-08-16 12:40:00,73.2,68.1,30.06,NE,39,4.0,9.0,84,0.00,,---,0.00,VWS V13.01,2013-08-16 17:40:00,
2013-08-16 12:41:00,73.3,67.5,30.05,NE,39,5.0,9.0,82,0.00,,---,0.00,VWS V13.01,2013-08-16 17:41:00,
2013-08-16 12:42:00,73.3,67.5,30.05,NE,39,6.0,9.0,82,0.00,,---,0.00,VWS V13.01,2013-08-16 17:42:00,
2013-08-16 12:43:00,73.3,67.5,30.05,NE,38,2.0,9.0,82,0.00,,---,0.00,VWS V13.01,2013-08-16 17:43:00,
2013-08-16 12:44:00,73.3,67.5,30.05,NE,38,0.0,9.0,82,0.00,,---,0.00,VWS V13.01,2013-08-16 17:44:00,
2013-08-16 12:45:00,73.3,67.5,30.05,NE,39,3.0,9.0,82,0.00,,---,0.00,VWS V13.01,2013-08-16 17:45:00,
2013-08-16 12:46:00,73.3,67.5,30.05,NE,39,6.0,9.0,82,0.00,,---,0.00,VWS V13.01,2013-08-16 17:46:00,
2013-08-16 12:47:00,73.2,67.0,30.05,NE,38,3.0,9.0,81,0.00,,---,0.00,VWS V13.01,2013-08-16 17:47:00,
2013-08-16 12:48:00,73.2,67.4,30.05,NE,39,4.0,9.0,82,0.00,,---,0.00,VWS V13.01,2013-08-16 17:48:00,
2013-08-16 12:49:00,73.3,67.8,30.05,NE,39,3.0,9.0,83,0.00,,---,0.00,VWS V13.01,2013-08-16 17:49:00,
2013-08-16 12:50:00,73.3,67.8,30.05,NE,38,0.0,9.0,83,0.00,,---,0.00,VWS V13.01,2013-08-16 17:50:00,
2013-08-16 12:51:00,73.4,68.3,30.05,NE,39,0.0,9.0,84,0.00,,---,0.00,VWS V13.01,2013-08-16 17:51:00,
2013-08-16 12:52:00,73.5,68.4,30.05,NE,38,0.0,9.0,84,0.00,,---,0.00,VWS V13.01,2013-08-16 17:52:00,
2013-08-16 12:53:00,73.6,68.1,30.05,NE,39,3.0,9.0,83,0.00,,---,0.00,VWS V13.01,2013-08-16 17:53:00,
2013-08-16 12:54:00,73.6,67.8,30.05,NE,39,0.0,9.0,82,0.00,,---,0.00,VWS V13.01,2013-08-16 17:54:00,
2013-08-16 12:55:00,73.7,67.9,30.05,NE,39,0.0,9.0,82,0.00,,---,0.00,VWS V13.01,2013-08-16 17:55:00,
2013-08-16 12:56:00,73.7,68.2,30.05,NE,38,0.0,9.0,83,0.00,,---,0.00,VWS V13.01,2013-08-16 17:56:00,
2013-08-16 12:57:00,73.8,68.3,30.05,NE,38,5.0,9.0,83,0.00,,---,0.00,VWS V13.01,2013-08-16 17:57:00,
2013-08-16 12:58:00,73.8,67.6,30.05,NE,38,4.0,9.0,81,0.00,,---,0.00,VWS V13.01,2013-08-16 17:58:00,
2013-08-16 12:59:00,73.8,68.3,30.05,NE,38,0.0,9.0,83,0.00,,---,0.00,VWS V13.01,2013-08-16 17:59:00,
2013-08-16 13:00:00,73.9,68.4,30.05,NE,38,0.0,9.0,83,0.00,,---,0.00,VWS V13.01,2013-08-16 18:00:00,
2013-08-16 13:01:00,74.0,68.5,30.05,NE,39,0.0,1.0,83,0.00,,---,0.00,VWS V13.01,2013-08-16 18:01:00,
2013-08-16 13:02:00,74.1,68.6,30.05,NE,39,1.0,3.0,83,0.00,,---,0.00,VWS V13.01,2013-08-16 18:02:00,
2013-08-16 13:03:00,74.1,68.6,30.05,NE,38,0.0,3.0,83,0.00,,---,0.00,VWS V13.01,2013-08-16 18:03:00,
2013-08-16 13:04:00,74.2,68.4,30.05,NE,38,7.0,7.0,82,0.00,,---,0.00,VWS V13.01,2013-08-16 18:04:00,
2013-08-16 13:05:00,74.2,68.0,30.06,NE,38,5.0,7.0,81,0.00,,---,0.00,VWS V13.01,2013-08-16 18:05:00,
2013-08-16 13:06:00,74.2,67.6,30.06,NE,39,0.0,7.0,80,0.00,,---,0.00,VWS V13.01,2013-08-16 18:06:00,
2013-08-16 13:07:00,74.2,67.6,30.06,NE,39,0.0,7.0,80,0.00,,---,0.00,VWS V13.01,2013-08-16 18:07:00,
2013-08-16 13:08:00,74.2,68.4,30.06,NE,39,3.0,7.0,82,0.00,,---,0.00,VWS V13.01,2013-08-16 18:08:00,
2013-08-16 13:09:00,74.2,68.4,30.06,NE,39,2.0,7.0,82,0.00,,---,0.00,VWS V13.01,2013-08-16 18:09:00,
2013-08-16 13:10:00,74.3,68.4,30.06,NE,39,3.0,7.0,82,0.00,,---,0.00,VWS V13.01,2013-08-16 18:10:00,
2013-08-16 13:11:00,74.3,68.1,30.06,NE,38,4.0,7.0,81,0.00,,---,0.00,VWS V13.01,2013-08-16 18:11:00,
2013-08-16 13:12:00,74.3,68.1,30.06,NE,39,2.0,7.0,81,0.00,,---,0.00,VWS V13.01,2013-08-16 18:12:00,
2013-08-16 13:13:00,74.3,68.1,30.06,NE,39,5.0,7.0,81,0.00,,---,0.00,VWS V13.01,2013-08-16 18:13:00,
2013-08-16 13:14:00,74.3,68.1,30.05,NE,39,0.0,7.0,81,0.00,,---,0.00,VWS V13.01,2013-08-16 18:14:00,
2013-08-16 13:15:00,74.3,68.1,30.05,NE,39,2.0,7.0,81,0.00,,---,0.00,VWS V13.01,2013-08-16 18:15:00,
2013-08-16 13:16:00,74.3,68.4,30.05,NE,39,4.0,7.0,82,0.00,,---,0.00,VWS V13.01,2013-08-16 18:16:00,
2013-08-16 13:17:00,74.3,67.7,30.05,NE,38,3.0,7.0,80,0.00,,---,0.00,VWS V13.01,2013-08-16 18:17:00,
2013-08-16 13:18:00,74.3,68.4,30.05,NE,38,4.0,7.0,82,0.00,,---,0.00,VWS V13.01,2013-08-16 18:18:00,
2013-08-16 13:19:00,74.3,68.4,30.05,NE,39,3.0,7.0,82,0.00,,---,0.00,VWS V13.01,2013-08-16 18:19:00,
2013-08-16 13:20:00,74.3,67.7,30.05,NE,39,4.0,7.0,80,0.00,,---,0.00,VWS V13.01,2013-08-16 18:20:00,
2013-08-16 13:21:00,74.3,68.1,30.05,NE,39,2.0,7.0,81,0.00,,---,0.00,VWS V13.01,2013-08-16 18:21:00,
2013-08-16 13:22:00,74.3,68.4,30.05,NE,39,0.0,7.0,82,0.00,,---,0.00,VWS V13.01,2013-08-16 18:22:00,
2013-08-16 13:23:00,74.4,68.2,30.05,NE,39,2.0,7.0,81,0.00,,---,0.00,VWS V13.01,2013-08-16 18:23:00,
2013-08-16 13:24:00,74.4,68.2,30.05,NE,39,5.0,7.0,81,0.00,,---,0.00,VWS V13.01,2013-08-16 18:24:00,
2013-08-16 13:25:00,74.4,68.2,30.05,NE,38,0.0,7.0,81,0.00,,---,0.00,VWS V13.01,2013-08-16 18:25:00,
2013-08-16 13:26:00,74.5,67.9,30.05,NE,38,3.0,7.0,80,0.00,,---,0.00,VWS V13.01,2013-08-16 18:26:00,
2013-08-16 13:27:00,74.5,67.9,30.05,NE,38,6.0,7.0,80,0.00,,---,0.00,VWS V13.01,2013-08-16 18:27:00,
2013-08-16 13:28:00,74.5,67.9,30.05,NE,39,2.0,10.0,80,0.00,,---,0.00,VWS V13.01,2013-08-16 18:28:00,
2013-08-16 13:29:00,74.5,67.9,30.05,NE,39,0.0,10.0,80,0.00,,---,0.00,VWS V13.01,2013-08-16 18:29:00,
2013-08-16 13:30:00,74.6,68.4,30.05,NE,39,2.0,10.0,81,0.00,,---,0.00,VWS V13.01,2013-08-16 18:30:00,
2013-08-16 13:31:00,74.7,68.5,30.05,NE,38,0.0,3.0,81,0.00,,---,0.00,VWS V13.01,2013-08-16 18:31:00,
2013-08-16 13:32:00,74.7,68.1,30.05,NE,38,0.0,3.0,80,0.00,,---,0.00,VWS V13.01,2013-08-16 18:32:00,
2013-08-16 13:33:00,74.8,68.6,30.05,NE,38,0.0,3.0,81,0.00,,---,0.00,VWS V13.01,2013-08-16 18:33:00,
2013-08-16 13:34:00,74.8,68.2,30.05,NE,39,0.0,3.0,80,0.00,,---,0.00,VWS V13.01,2013-08-16 18:34:00,
2013-08-16 13:35:00,74.9,67.9,30.05,NE,39,0.0,3.0,79,0.00,,---,0.00,VWS V13.01,2013-08-16 18:35:00,
2013-08-16 13:36:00,75.0,68.4,30.05,NE,38,0.0,3.0,80,0.00,,---,0.00,VWS V13.01,2013-08-16 18:36:00,
2013-08-16 13:37:00,75.1,68.5,30.05,NE,39,0.0,3.0,80,0.00,,---,0.00,VWS V13.01,2013-08-16 18:37:00,
2013-08-16 13:38:00,75.2,68.6,30.05,NE,38,0.0,3.0,80,0.00,,---,0.00,VWS V13.01,2013-08-16 18:38:00,
2013-08-16 13:39:00,75.3,68.7,30.05,NE,38,1.0,3.0,80,0.00,,---,0.00,VWS V13.01,2013-08-16 18:39:00,
2013-08-16 13:40:00,75.3,67.6,30.05,NE,38,0.0,6.0,77,0.00,,---,0.00,VWS V13.01,2013-08-16 18:40:00,
2013-08-16 13:41:00,75.3,68.0,30.05,NE,39,1.0,6.0,78,0.00,,---,0.00,VWS V13.01,2013-08-16 18:41:00,
2013-08-16 13:42:00,75.4,67.3,30.05,NE,39,0.0,6.0,76,0.00,,---,0.00,VWS V13.01,2013-08-16 18:42:00,
2013-08-16 13:43:00,75.3,67.2,30.05,NE,39,4.0,6.0,76,0.00,,---,0.00,VWS V13.01,2013-08-16 18:43:00,
2013-08-16 13:44:00,75.2,66.7,30.05,NE,38,5.0,6.0,75,0.00,,---,0.00,VWS V13.01,2013-08-16 18:44:00,
2013-08-16 13:45:00,75.2,67.5,30.05,NE,39,2.0,6.0,77,0.00,,---,0.00,VWS V13.01,2013-08-16 18:45:00,
2013-08-16 13:46:00,75.1,67.4,30.05,NE,38,0.0,6.0,77,0.00,,---,0.00,VWS V13.01,2013-08-16 18:46:00,
2013-08-16 13:47:00,75.1,67.0,30.05,NE,39,4.0,6.0,76,0.00,,---,0.00,VWS V13.01,2013-08-16 18:47:00,
2013-08-16 13:48:00,75.1,67.4,30.05,NE,38,4.0,6.0,77,0.00,,---,0.00,VWS V13.01,2013-08-16 18:48:00,
2013-08-16 13:49:00,75.0,67.3,30.05,NE,39,3.0,6.0,77,0.00,,---,0.00,VWS V13.01,2013-08-16 18:49:00,
2013-08-16 13:50:00,74.9,66.8,30.05,NE,39,3.0,6.0,76,0.00,,---,0.00,VWS V13.01,2013-08-16 18:50:00,
2013-08-16 13:51:00,74.9,67.2,30.05,NE,39,0.0,6.0,77,0.00,,---,0.00,VWS V13.01,2013-08-16 18:51:00,
2013-08-16 13:52:00,74.9,67.2,30.05,NE,38,2.0,6.0,77,0.00,,---,0.00,VWS V13.01,2013-08-16 18:52:00,
2013-08-16 13:53:00,74.8,67.5,30.05,NE,39,4.0,6.0,78,0.00,,---,0.00,VWS V13.01,2013-08-16 18:53:00,
2013-08-16 13:54:00,74.8,67.1,30.05,NE,39,0.0,6.0,77,0.00,,---,0.00,VWS V13.01,2013-08-16 18:54:00,
2013-08-16 13:55:00,74.8,67.9,30.05,NE,39,0.0,6.0,79,0.00,,---,0.00,VWS V13.01,2013-08-16 18:55:00,
2013-08-16 13:56:00,74.8,67.9,30.05,NE,39,0.0,6.0,79,0.00,,---,0.00,VWS V13.01,2013-08-16 18:56:00,
2013-08-16 13:57:00,74.8,67.1,30.05,NE,39,1.0,6.0,77,0.00,,---,0.00,VWS V13.01,2013-08-16 18:57:00,
2013-08-16 13:58:00,74.8,67.5,30.05,NE,38,4.0,6.0,78,0.00,,---,0.00,VWS V13.01,2013-08-16 18:58:00,
2013-08-16 13:59:00,74.8,67.5,30.04,NE,38,4.0,7.0,78,0.00,,---,0.00,VWS V13.01,2013-08-16 18:59:00,
2013-08-16 14:00:00,74.8,67.1,30.05,NE,39,3.0,7.0,77,0.00,,---,0.00,VWS V13.01,2013-08-16 19:00:00,
2013-08-16 14:01:00,74.8,67.9,30.04,NE,39,0.0,3.0,79,0.00,,---,0.00,VWS V13.01,2013-08-16 19:01:00,
2013-08-16 14:02:00,74.9,67.6,30.04,NE,39,0.0,3.0,78,0.00,,---,0.00,VWS V13.01,2013-08-16 19:02:00,
2013-08-16 14:03:00,74.9,67.2,30.04,NE,39,4.0,4.0,77,0.00,,---,0.00,VWS V13.01,2013-08-16 19:03:00,
2013-08-16 14:04:00,74.9,67.2,30.04,NE,39,3.0,4.0,77,0.00,,---,0.00,VWS V13.01,2013-08-16 19:04:00,
2013-08-16 14:05:00,75.0,67.3,30.04,NE,38,2.0,5.0,77,0.00,,---,0.00,VWS V13.01,2013-08-16 19:05:00,
2013-08-16 14:06:00,75.0,67.7,30.04,NE,38,0.0,5.0,78,0.00,,---,0.00,VWS V13.01,2013-08-16 19:06:00,
2013-08-16 14:07:00,75.1,68.2,30.04,NE,39,0.0,5.0,79,0.00,,---,0.00,VWS V13.01,2013-08-16 19:07:00,
2013-08-16 14:08:00,75.1,68.2,30.04,NE,39,6.0,6.0,79,0.00,,---,0.00,VWS V13.01,2013-08-16 19:08:00,
2013-08-16 14:09:00,75.2,67.9,30.04,NE,39,6.0,6.0,78,0.00,,---,0.00,VWS V13.01,2013-08-16 19:09:00,
2013-08-16 14:10:00,75.2,67.9,30.04,NE,39,3.0,8.0,78,0.00,,---,0.00,VWS V13.01,2013-08-16 19:10:00,
2013-08-16 14:11:00,75.1,67.0,30.04,NE,39,5.0,8.0,76,0.00,,---,0.00,VWS V13.01,2013-08-16 19:11:00,
2013-08-16 14:12:00,75.1,67.0,30.04,NE,38,4.0,8.0,76,0.00,,---,0.00,VWS V13.01,2013-08-16 19:12:00,
2013-08-16 14:13:00,75.1,67.0,30.04,NE,39,6.0,8.0,76,0.00,,---,0.00,VWS V13.01,2013-08-16 19:13:00,
2013-08-16 14:14:00,75.1,67.4,30.04,NE,39,3.0,8.0,77,0.00,,---,0.00,VWS V13.01,2013-08-16 19:14:00,
2013-08-16 14:15:00,75.1,67.8,30.04,NE,39,0.0,8.0,78,0.00,,---,0.00,VWS V13.01,2013-08-16 19:15:00,
2013-08-16 14:16:00,75.0,67.3,30.04,NE,39,7.0,10.0,77,0.00,,---,0.00,VWS V13.01,2013-08-16 19:16:00,
2013-08-16 14:17:00,75.0,66.9,30.04,NE,39,4.0,10.0,76,0.00,,---,0.00,VWS V13.01,2013-08-16 19:17:00,
2013-08-16 14:18:00,75.0,66.6,30.04,NE,39,4.0,10.0,75,0.00,,---,0.00,VWS V13.01,2013-08-16 19:18:00,
2013-08-16 14:19:00,75.0,66.6,30.04,NE,38,5.0,10.0,75,0.00,,---,0.00,VWS V13.01,2013-08-16 19:19:00,
2013-08-16 14:20:00,74.9,66.8,30.04,NE,38,2.0,10.0,76,0.00,,---,0.00,VWS V13.01,2013-08-16 19:20:00,
2013-08-16 14:21:00,74.9,67.2,30.04,NE,38,0.0,10.0,77,0.00,,---,0.00,VWS V13.01,2013-08-16 19:21:00,
2013-08-16 14:22:00,75.0,66.9,30.03,NE,39,0.0,10.0,76,0.00,,---,0.00,VWS V13.01,2013-08-16 19:22:00,
2013-08-16 14:23:00,75.0,66.9,30.04,NE,39,0.0,10.0,76,0.00,,---,0.00,VWS V13.01,2013-08-16 19:23:00,
2013-08-16 14:24:00,75.0,67.3,30.04,NE,39,0.0,10.0,77,0.00,,---,0.00,VWS V13.01,2013-08-16 19:24:00,
2013-08-16 14:25:00,75.1,68.2,30.04,NE,39,0.0,10.0,79,0.00,,---,0.00,VWS V13.01,2013-08-16 19:25:00,
2013-08-16 14:26:00,75.2,67.9,30.04,NE,38,3.0,10.0,78,0.00,,---,0.00,VWS V13.01,2013-08-16 19:26:00,
2013-08-16 14:27:00,75.2,67.5,30.04,NE,38,0.0,10.0,77,0.00,,---,0.00,VWS V13.01,2013-08-16 19:27:00,
2013-08-16 14:28:00,75.3,68.0,30.04,NE,39,7.0,10.0,78,0.00,,---,0.00,VWS V13.01,2013-08-16 19:28:00,
2013-08-16 14:29:00,75.3,67.2,30.04,NE,39,7.0,10.0,76,0.00,,---,0.00,VWS V13.01,2013-08-16 19:29:00,
2013-08-16 14:30:00,75.3,67.2,30.04,NE,39,4.0,10.0,76,0.00,,---,0.00,VWS V13.01,2013-08-16 19:30:00,
2013-08-16 14:31:00,75.3,67.6,30.04,NE,39,3.0,6.0,77,0.00,,---,0.00,VWS V13.01,2013-08-16 19:31:00,
2013-08-16 14:32:00,75.3,67.2,30.04,NE,38,3.0,6.0,76,0.00,,---,0.00,VWS V13.01,2013-08-16 19:32:00,
2013-08-16 14:33:00,75.3,67.2,30.03,NE,38,0.0,6.0,76,0.00,,---,0.00,VWS V13.01,2013-08-16 19:33:00,
2013-08-16 14:34:00,75.3,67.6,30.03,NE,39,4.0,6.0,77,0.00,,---,0.00,VWS V13.01,2013-08-16 19:34:00,
2013-08-16 14:35:00,75.4,67.3,30.03,NE,39,3.0,6.0,76,0.00,,---,0.00,VWS V13.01,2013-08-16 19:35:00,
2013-08-16 14:36:00,75.3,67.6,30.03,NE,39,0.0,6.0,77,0.00,,---,0.00,VWS V13.01,2013-08-16 19:36:00,
2013-08-16 14:37:00,75.4,67.7,30.03,NE,39,0.0,6.0,77,0.00,,---,0.00,VWS V13.01,2013-08-16 19:37:00,
2013-08-16 14:38:00,75.4,68.1,30.03,NE,39,0.0,6.0,78,0.00,,---,0.00,VWS V13.01,2013-08-16 19:38:00,
2013-08-16 14:39:00,75.5,67.8,30.03,NE,38,0.0,6.0,77,0.00,,---,0.00,VWS V13.01,2013-08-16 19:39:00,
2013-08-16 14:40:00,75.5,68.2,30.03,NE,38,0.0,6.0,78,0.00,,---,0.00,VWS V13.01,2013-08-16 19:40:00,
2013-08-16 14:41:00,75.6,68.3,30.03,NE,39,0.0,6.0,78,0.00,,---,0.00,VWS V13.01,2013-08-16 19:41:00,
2013-08-16 14:42:00,75.6,68.3,30.03,NE,39,0.0,6.0,78,0.00,,---,0.00,VWS V13.01,2013-08-16 19:42:00,
2013-08-16 14:43:00,75.7,68.4,30.03,NE,39,0.0,6.0,78,0.00,,---,0.00,VWS V13.01,2013-08-16 19:43:00,
2013-08-16 14:44:00,75.7,68.0,30.03,NE,39,0.0,6.0,77,0.00,,---,0.00,VWS V13.01,2013-08-16 19:44:00,
2013-08-16 14:45:00,75.7,68.0,30.03,NE,39,0.0,6.0,77,0.00,,---,0.00,VWS V13.01,2013-08-16 19:45:00,
2013-08-16 14:46:00,75.7,68.0,30.03,NE,39,0.0,6.0,77,0.00,,---,0.00,VWS V13.01,2013-08-16 19:46:00,
2013-08-16 14:47:00,75.8,68.1,30.03,NE,38,2.0,6.0,77,0.00,,---,0.00,VWS V13.01,2013-08-16 19:47:00,
2013-08-16 14:48:00,75.8,68.1,30.03,NE,39,0.0,6.0,77,0.00,,---,0.00,VWS V13.01,2013-08-16 19:48:00,
2013-08-16 14:49:00,75.8,68.1,30.03,NE,39,0.0,6.0,77,0.00,,---,0.00,VWS V13.01,2013-08-16 19:49:00,
2013-08-16 14:50:00,75.8,67.7,30.03,NE,39,1.0,6.0,76,0.00,,---,0.00,VWS V13.01,2013-08-16 19:50:00,
2013-08-16 14:51:00,75.8,67.7,30.03,NE,39,2.0,6.0,76,0.00,,---,0.00,VWS V13.01,2013-08-16 19:51:00,
2013-08-16 14:52:00,75.8,68.1,30.03,NE,39,1.0,6.0,77,0.00,,---,0.00,VWS V13.01,2013-08-16 19:52:00,
2013-08-16 14:53:00,75.8,68.1,30.03,NE,38,1.0,6.0,77,0.00,,---,0.00,VWS V13.01,2013-08-16 19:53:00,
2013-08-16 14:54:00,75.8,68.1,30.03,NE,39,0.0,6.0,77,0.00,,---,0.00,VWS V13.01,2013-08-16 19:54:00,
2013-08-16 14:55:00,75.9,68.6,30.03,NE,38,0.0,6.0,78,0.00,,---,0.00,VWS V13.01,2013-08-16 19:55:00,
2013-08-16 14:56:00,75.9,67.8,30.03,NE,39,2.0,6.0,76,0.00,,---,0.00,VWS V13.01,2013-08-16 19:56:00,
2013-08-16 14:57:00,75.8,68.1,30.03,NE,39,0.0,6.0,77,0.00,,---,0.00,VWS V13.01,2013-08-16 19:57:00,
2013-08-16 14:58:00,75.9,68.2,30.03,NE,39,0.0,6.0,77,0.00,,---,0.00,VWS V13.01,2013-08-16 19:58:00,
2013-08-16 14:59:00,75.9,68.6,30.03,NE,39,2.0,6.0,78,0.00,,---,0.00,VWS V13.01,2013-08-16 19:59:00,
2013-08-16 15:00:00,76.0,68.3,30.03,NE,38,3.0,6.0,77,0.00,,---,0.00,VWS V13.01,2013-08-16 20:00:00,
2013-08-16 15:01:00,75.9,67.8,30.03,NE,38,2.0,6.0,76,0.00,,---,0.00,VWS V13.01,2013-08-16 20:01:00,
2013-08-16 15:02:00,75.9,67.8,30.03,NE,38,0.0,6.0,76,0.00,,---,0.00,VWS V13.01,2013-08-16 20:02:00,
2013-08-16 15:03:00,75.8,67.7,30.03,NE,39,1.0,6.0,76,0.00,,---,0.00,VWS V13.01,2013-08-16 20:03:00,
2013-08-16 15:04:00,75.8,68.1,30.03,NE,39,0.0,6.0,77,0.00,,---,0.00,VWS V13.01,2013-08-16 20:04:00,
2013-08-16 15:05:00,75.8,67.7,30.03,NE,39,2.0,6.0,76,0.00,,---,0.00,VWS V13.01,2013-08-16 20:05:00,
2013-08-16 15:06:00,75.7,68.0,30.03,NE,38,3.0,9.0,77,0.00,,---,0.00,VWS V13.01,2013-08-16 20:06:00,
2013-08-16 15:07:00,75.7,67.6,30.03,NE,38,3.0,9.0,76,0.00,,---,0.00,VWS V13.01,2013-08-16 20:07:00,
2013-08-16 15:08:00,75.7,68.0,30.03,NE,38,6.0,9.0,77,0.00,,---,0.00,VWS V13.01,2013-08-16 20:08:00,
2013-08-16 15:09:00,75.6,67.5,30.03,NE,39,4.0,9.0,76,0.00,,---,0.00,VWS V13.01,2013-08-16 20:09:00,
2013-08-16 15:10:00,75.6,67.9,30.03,NE,39,1.0,9.0,77,0.00,,---,0.00,VWS V13.01,2013-08-16 20:10:00,
2013-08-16 15:11:00,75.6,68.3,30.03,NE,39,6.0,9.0,78,0.00,,---,0.00,VWS V13.01,2013-08-16 20:11:00,
2013-08-16 15:12:00,75.5,67.4,30.03,NE,39,3.0,9.0,76,0.00,,---,0.00,VWS V13.01,2013-08-16 20:12:00,
2013-08-16 15:13:00,75.5,67.8,30.03,NE,38,5.0,9.0,77,0.00,,---,0.00,VWS V13.01,2013-08-16 20:13:00,
2013-08-16 15:14:00,75.5,67.8,30.03,NE,38,2.0,9.0,77,0.00,,---,0.00,VWS V13.01,2013-08-16 20:14:00,
2013-08-16 15:15:00,75.5,67.8,30.03,NE,39,0.0,9.0,77,0.00,,---,0.00,VWS V13.01,2013-08-16 20:15:00,
2013-08-16 15:16:00,75.5,67.8,30.03,NE,39,0.0,9.0,77,0.00,,---,0.00,VWS V13.01,2013-08-16 20:16:00,
2013-08-16 15:17:00,75.5,68.2,30.03,NE,39,3.0,9.0,78,0.00,,---,0.00,VWS V13.01,2013-08-16 20:17:00,
2013-08-16 15:18:00,75.6,68.3,30.03,NE,39,2.0,9.0,78,0.00,,---,0.00,VWS V13.01,2013-08-16 20:18:00,
2013-08-16 15:19:00,75.6,68.3,30.03,NE,39,3.0,9.0,78,0.00,,---,0.00,VWS V13.01,2013-08-16 20:19:00,
2013-08-16 15:20:00,75.6,67.5,30.03,NE,38,3.0,9.0,76,0.00,,---,0.00,VWS V13.01,2013-08-16 20:20:00,
2013-08-16 15:21:00,75.6,68.3,30.03,NE,38,4.0,9.0,78,0.00,,---,0.00,VWS V13.01,2013-08-16 20:21:00,
2013-08-16 15:22:00,75.6,67.9,30.03,NE,39,4.0,9.0,77,0.00,,---,0.00,VWS V13.01,2013-08-16 20:22:00,
2013-08-16 15:23:00,75.6,67.9,30.03,NE,39,3.0,9.0,77,0.00,,---,0.00,VWS V13.01,2013-08-16 20:23:00,
2013-08-16 15:24:00,75.5,67.8,30.03,NE,39,5.0,9.0,77,0.00,,---,0.00,VWS V13.01,2013-08-16 20:24:00,
2013-08-16 15:25:00,75.5,67.8,30.03,NE,39,0.0,9.0,77,0.00,,---,0.00,VWS V13.01,2013-08-16 20:25:00,
2013-08-16 15:26:00,75.5,67.8,30.03,NE,39,3.0,9.0,77,0.00,,---,0.00,VWS V13.01,2013-08-16 20:26:00,
2013-08-16 15:27:00,75.5,67.8,30.03,NE,38,0.0,9.0,77,0.00,,---,0.00,VWS V13.01,2013-08-16 20:27:00,
2013-08-16 15:28:00,75.5,67.8,30.03,NE,38,3.0,9.0,77,0.00,,---,0.00,VWS V13.01,2013-08-16 20:28:00,
2013-08-16 15:29:00,75.5,67.8,30.03,NE,39,0.0,9.0,77,0.00,,---,0.00,VWS V13.01,2013-08-16 20:29:00,
2013-08-16 15:30:00,75.5,68.5,30.03,NE,38,0.0,9.0,79,0.00,,---,0.00,VWS V13.01,2013-08-16 20:30:00,
2013-08-16 15:31:00,75.5,68.5,30.03,NE,39,2.0,4.0,79,0.00,,---,0.00,VWS V13.01,2013-08-16 20:31:00,
2013-08-16 15:32:00,75.6,68.3,30.03,NE,39,0.0,4.0,78,0.00,,---,0.00,VWS V13.01,2013-08-16 20:32:00,
2013-08-16 15:33:00,75.6,68.6,30.03,NE,39,0.0,4.0,79,0.00,,---,0.00,VWS V13.01,2013-08-16 20:33:00,
2013-08-16 15:34:00,75.7,68.4,30.03,NE,38,1.0,4.0,78,0.00,,---,0.00,VWS V13.01,2013-08-16 20:34:00,
2013-08-16 15:35:00,75.7,68.4,30.03,NE,38,0.0,4.0,78,0.00,,---,0.00,VWS V13.01,2013-08-16 20:35:00,
2013-08-16 15:36:00,75.8,68.5,30.03,NE,38,2.0,4.0,78,0.00,,---,0.00,VWS V13.01,2013-08-16 20:36:00,
2013-08-16 15:37:00,75.8,68.5,30.03,NE,39,4.0,4.0,78,0.00,,---,0.00,VWS V13.01,2013-08-16 20:37:00,
2013-08-16 15:38:00,75.8,67.7,30.03,NE,39,5.0,5.0,76,0.00,,---,0.00,VWS V13.01,2013-08-16 20:38:00,
2013-08-16 15:39:00,75.7,67.6,30.03,NE,39,4.0,5.0,76,0.00,,---,0.00,VWS V13.01,2013-08-16 20:39:00,
2013-08-16 15:40:00,75.7,68.0,30.03,NE,38,5.0,6.0,77,0.00,,---,0.00,VWS V13.01,2013-08-16 20:40:00,
2013-08-16 15:41:00,75.7,68.0,30.03,NE,38,3.0,6.0,77,0.00,,---,0.00,VWS V13.01,2013-08-16 20:41:00,
2013-08-16 15:42:00,75.6,67.9,30.03,NE,38,3.0,6.0,77,0.00,,---,0.00,VWS V13.01,2013-08-16 20:42:00,
2013-08-16 15:43:00,75.6,68.3,30.03,NE,38,0.0,6.0,78,0.00,,---,0.00,VWS V13.01,2013-08-16 20:43:00,
2013-08-16 15:44:00,75.6,68.3,30.03,NE,39,2.0,6.0,78,0.00,,---,0.00,VWS V13.01,2013-08-16 20:44:00,
2013-08-16 15:45:00,75.6,68.3,30.03,NE,39,6.0,6.0,78,0.00,,---,0.00,VWS V13.01,2013-08-16 20:45:00,
2013-08-16 15:46:00,75.5,67.8,30.03,NE,39,0.0,6.0,77,0.00,,---,0.00,VWS V13.01,2013-08-16 20:46:00,
2013-08-16 15:47:00,75.5,68.2,30.03,NE,39,3.0,6.0,78,0.00,,---,0.00,VWS V13.01,2013-08-16 20:47:00,
2013-08-16 15:48:00,75.5,67.8,30.03,NE,38,1.0,6.0,77,0.00,,---,0.00,VWS V13.01,2013-08-16 20:48:00,
2013-08-16 15:49:00,75.5,67.8,30.03,NE,38,5.0,6.0,77,0.00,,---,0.00,VWS V13.01,2013-08-16 20:49:00,
2013-08-16 15:50:00,75.5,68.2,30.03,NE,39,0.0,6.0,78,0.00,,---,0.00,VWS V13.01,2013-08-16 20:50:00,
2013-08-16 15:51:00,75.5,68.2,30.03,NE,39,0.0,6.0,78,0.00,,---,0.00,VWS V13.01,2013-08-16 20:51:00,
2013-08-16 15:52:00,75.5,68.5,30.03,NE,39,0.0,6.0,79,0.00,,---,0.00,VWS V13.01,2013-08-16 20:52:00,
2013-08-16 15:53:00,75.5,68.2,30.03,NE,38,0.0,6.0,78,0.00,,---,0.00,VWS V13.01,2013-08-16 20:53:00,
2013-08-16 15:54:00,75.5,67.8,30.03,NE,39,0.0,6.0,77,0.00,,---,0.00,VWS V13.01,2013-08-16 20:54:00,
2013-08-16 15:55:00,75.5,68.2,30.03,NE,38,0.0,6.0,78,0.00,,---,0.00,VWS V13.01,2013-08-16 20:55:00,
2013-08-16 15:56:00,75.5,68.2,30.03,NE,39,0.0,6.0,78,0.00,,---,0.00,VWS V13.01,2013-08-16 20:56:00,
2013-08-16 15:57:00,75.5,68.2,30.03,NE,39,0.0,6.0,78,0.00,,---,0.00,VWS V13.01,2013-08-16 20:57:00,
2013-08-16 15:58:00,75.5,68.2,30.03,NE,39,0.0,6.0,78,0.00,,---,0.00,VWS V13.01,2013-08-16 20:58:00,
2013-08-16 15:59:00,75.6,68.3,30.03,NE,39,0.0,6.0,78,0.00,,---,0.00,VWS V13.01,2013-08-16 20:59:00,
2013-08-16 16:00:00,75.6,68.3,30.03,NE,38,0.0,6.0,78,0.00,,---,0.00,VWS V13.01,2013-08-16 21:00:00,
2013-08-16 16:01:00,75.6,68.6,30.03,NE,39,0.0,0.0,79,0.00,,---,0.00,VWS V13.01,2013-08-16 21:01:00,
2013-08-16 16:02:00,75.6,68.6,30.03,NE,38,0.0,0.0,79,0.00,,---,0.00,VWS V13.01,2013-08-16 21:02:00,
2013-08-16 16:03:00,75.6,68.6,30.03,NE,39,0.0,0.0,79,0.00,,---,0.00,VWS V13.01,2013-08-16 21:03:00,
2013-08-16 16:04:00,75.7,68.7,30.03,NE,39,1.0,4.0,79,0.00,,---,0.00,VWS V13.01,2013-08-16 21:04:00,
2013-08-16 16:05:00,75.7,68.7,30.03,NE,39,3.0,6.0,79,0.00,,---,0.00,VWS V13.01,2013-08-16 21:05:00,
2013-08-16 16:06:00,75.6,68.3,30.03,NE,39,0.0,6.0,78,0.00,,---,0.00,VWS V13.01,2013-08-16 21:06:00,
2013-08-16 16:07:00,75.7,68.7,30.03,NE,39,0.0,6.0,79,0.00,,---,0.00,VWS V13.01,2013-08-16 21:07:00,
2013-08-16 16:08:00,75.7,68.7,30.03,NE,38,4.0,6.0,79,0.00,,---,0.00,VWS V13.01,2013-08-16 21:08:00,
2013-08-16 16:09:00,75.7,68.7,30.03,NE,39,2.0,6.0,79,0.00,,---,0.00,VWS V13.01,2013-08-16 21:09:00,
2013-08-16 16:10:00,75.6,68.3,30.03,NE,39,2.0,6.0,78,0.00,,---,0.00,VWS V13.01,2013-08-16 21:10:00,
2013-08-16 16:11:00,75.6,67.9,30.03,NE,39,1.0,6.0,77,0.00,,---,0.00,VWS V13.01,2013-08-16 21:11:00,
2013-08-16 16:12:00,75.6,67.9,30.03,NE,39,2.0,6.0,77,0.00,,---,0.00,VWS V13.01,2013-08-16 21:12:00,
2013-08-16 16:13:00,75.5,68.2,30.03,NE,39,1.0,6.0,78,0.00,,---,0.00,VWS V13.01,2013-08-16 21:13:00,
2013-08-16 16:14:00,75.6,68.6,30.03,NE,39,0.0,6.0,79,0.00,,---,0.00,VWS V13.01,2013-08-16 21:14:00,